GFSNGP_850_thetae_000.txt.gz
Theta_e
314 314 315 315 314 313 314 313 313 313 314 315 312 311 312 311 311 310 308 305 303 304 302 300 299 299 299 298 297 296 295 294 292 291 293 294 295 295 296 292 291 289 289 289
315 315 314 314 312 313 313 313 313 315 315 312 312 312 311 309 309 307 304 302 302 302 299 299 298 297 297 296 295 294 294 293 292 292 292 292 293 295 294 291 289 289 290 288
311 309 310 309 313 316 315 314 314 312 313 311 310 310 309 308 307 304 302 301 302 299 298 298 297 297 296 295 294 294 294 293 293 292 292 292 293 294 293 291 291 290 288 288
304 302 306 315 313 313 316 315 312 312 310 310 310 310 308 307 305 303 302 301 300 299 298 297 296 296 295 295 294 294 294 293 293 292 292 291 293 293 292 291 291 289 288 288
303 306 306 311 314 313 313 316 313 312 310 310 310 307 306 306 304 303 302 300 300 298 298 296 296 295 295 295 294 294 293 293 292 292 291 292 293 292 292 292 290 288 288 288
307 302 302 307 314 315 313 312 313 312 310 310 309 302 304 306 306 304 301 300 299 298 297 296 296 295 295 294 294 293 293 292 292 292 291 292 291 291 291 289 289 288 288 287
303 299 305 306 311 314 311 309 313 312 311 309 306 307 305 306 304 301 300 299 297 297 296 295 295 295 294 294 293 293 293 293 292 291 291 291 291 290 289 289 289 288 287 286
301 302 309 310 313 310 310 314 315 313 311 309 308 307 306 305 301 300 298 298 297 296 295 294 294 294 293 293 293 293 293 292 290 290 291 290 290 290 289 289 288 287 287 286
309 309 309 312 314 314 314 315 314 313 310 309 306 307 305 301 300 298 297 296 296 295 293 293 293 291 292 293 293 293 292 291 290 289 290 289 289 289 289 288 288 287 286 285
310 313 312 314 314 314 315 315 314 312 309 306 307 306 301 299 298 297 296 295 293 291 291 290 290 290 292 293 293 292 292 292 290 288 287 287 289 289 288 288 288 286 285 284
309 312 314 315 315 315 314 313 312 310 309 308 306 300 299 297 296 296 294 292 290 290 290 290 290 290 290 290 291 291 292 292 290 288 287 287 288 288 288 288 287 285 284 283
311 313 313 313 314 314 313 311 310 310 307 305 302 298 296 296 295 293 292 290 290 290 290 290 290 290 290 290 290 290 291 290 290 289 287 287 288 288 287 286 285 284 283 283
314 315 314 314 314 313 311 309 309 310 304 300 297 296 296 294 292 291 290 290 290 290 290 290 290 290 289 289 289 290 290 291 290 289 289 288 287 287 285 284 284 284 283 283
313 313 314 313 312 311 309 306 304 301 298 297 296 296 294 293 291 290 290 290 290 290 289 290 289 290 289 289 289 290 290 290 290 289 289 288 286 285 284 284 284 283 283 283
313 314 313 313 309 309 304 302 299 297 297 296 296 295 294 291 290 290 290 290 290 290 289 289 289 290 289 289 290 290 289 289 289 289 288 288 286 285 284 284 283 283 283 282
313 311 310 309 307 304 302 301 299 297 296 296 295 293 291 290 290 291 290 290 290 290 290 289 290 289 289 289 290 289 288 288 288 288 287 287 285 285 284 283 283 283 283 282
310 308 307 306 305 301 299 297 298 296 295 294 292 291 291 291 291 291 291 291 290 290 289 289 289 289 289 289 289 289 288 287 287 286 286 286 285 284 284 284 283 283 283 283
308 306 305 301 300 297 299 297 295 295 294 291 291 291 291 291 291 291 291 290 290 290 288 289 289 289 290 290 289 290 288 287 287 286 285 284 284 284 285 284 283 283 283 283
305 303 299 297 299 297 295 295 294 291 290 291 292 291 291 291 291 291 291 290 290 289 289 288 289 289 289 290 289 289 289 287 286 285 285 284 284 284 284 284 283 283 283 283
298 301 298 294 294 295 294 291 291 291 291 291 291 291 291 291 291 292 291 290 290 290 289 289 289 289 289 289 289 289 289 288 287 286 285 284 284 284 284 284 284 283 283 283
299 294 294 294 293 291 291 291 291 291 291 291 291 291 291 291 291 292 292 291 291 290 289 288 288 288 288 287 288 288 289 288 287 287 286 285 284 284 284 284 284 284 283 283
295 295 294 294 291 291 291 291 291 291 292 292 292 292 292 292 292 292 292 291 290 289 288 288 287 287 287 287 288 288 288 288 287 287 287 286 285 284 284 284 284 284 283 282
294 295 294 292 291 291 291 291 292 292 293 293 294 293 293 293 293 292 291 290 289 288 288 288 287 287 287 287 288 288 288 288 288 288 287 286 285 285 284 283 283 283 283 282
293 292 292 292 292 292 292 292 293 293 293 292 292 293 293 293 293 292 290 289 288 288 287 287 287 287 287 287 288 288 288 288 288 288 288 288 287 287 285 284 283 283 283 283
293 293 293 293 293 294 293 292 293 292 292 292 292 293 293 292 291 290 288 288 287 287 287 286 286 287 287 287 288 288 288 288 288 288 288 288 288 287 287 286 284 283 283 283
294 294 293 294 293 291 291 291 291 292 292 292 291 290 290 290 289 288 287 287 287 286 286 286 286 286 286 286 287 287 287 287 287 287 287 288 288 288 287 287 285 284 282 282
292 292 292 292 292 291 291 291 292 292 292 291 290 289 290 290 288 288 287 287 286 285 285 285 285 285 285 285 285 285 285 285 286 286 287 287 287 287 287 286 286 284 283 282

GFSNGP_850_thetae_003.txt.gz
Theta_e
313 312 313 314 313 313 314 312 312 312 311 312 310 309 309 310 309 309 307 303 302 302 301 300 299 299 298 297 296 295 295 295 293 293 292 291 290 290 293 293 293 289 288 288
316 312 312 313 311 310 311 312 313 313 314 311 311 311 309 309 308 308 306 303 301 301 301 299 298 297 296 296 296 295 295 294 293 293 291 291 290 291 293 293 291 287 290 289
306 308 308 305 309 312 312 314 311 313 312 309 309 309 309 309 308 307 303 301 301 300 299 298 297 296 296 296 295 295 294 294 293 292 292 291 290 292 293 292 289 290 290 288
304 301 304 309 309 311 313 314 311 310 309 310 310 311 310 309 308 305 302 300 300 299 298 297 296 295 295 295 294 294 294 293 292 292 292 291 291 292 292 292 291 291 289 288
303 304 304 308 312 314 313 313 311 309 308 310 310 309 308 308 306 303 302 300 299 298 297 296 295 294 294 294 294 294 293 292 292 292 291 291 291 291 291 291 291 289 288 288
303 300 301 305 312 313 311 311 312 310 309 308 307 302 305 308 305 304 302 299 299 297 296 295 295 294 294 294 293 292 291 292 293 292 290 291 291 290 290 290 288 289 288 287
296 298 304 304 311 312 312 309 312 312 312 309 306 307 306 307 305 304 300 299 297 296 296 295 294 293 293 292 290 291 292 293 292 291 289 290 291 290 290 289 289 288 287 286
303 302 308 308 310 311 311 311 313 313 313 310 310 308 306 306 301 300 299 297 297 296 295 293 291 291 290 289 291 292 292 292 292 291 289 290 289 289 289 288 288 287 287 285
308 308 308 311 312 313 313 313 313 313 312 312 309 307 305 304 300 298 297 296 296 295 292 290 289 289 290 289 290 290 290 290 291 291 289 288 287 288 288 288 287 287 286 284
309 311 310 311 312 312 313 314 314 314 313 311 308 306 305 300 298 297 296 295 293 291 290 290 290 290 289 289 289 289 290 290 291 290 288 287 287 287 288 287 287 287 285 283
308 310 312 315 315 314 314 314 314 313 312 309 306 305 301 298 297 296 294 292 290 290 290 290 289 289 289 289 289 289 289 290 290 290 288 287 286 288 287 287 286 285 283 283
308 311 313 313 313 314 314 314 313 312 308 307 307 303 297 297 295 293 291 290 290 290 290 289 289 289 289 289 289 289 289 289 290 290 289 287 287 287 287 286 284 284 283 283
312 314 314 314 314 314 314 313 311 309 309 307 300 297 296 294 293 291 290 290 290 290 289 289 289 289 289 289 289 289 289 290 290 290 289 288 287 287 286 284 284 283 283 283
314 313 313 313 314 313 312 311 309 308 301 300 296 298 294 293 292 290 290 290 290 290 290 290 289 289 289 289 289 289 288 289 289 289 289 289 288 287 285 284 283 283 283 282
314 314 313 313 312 311 310 308 304 300 299 297 297 294 293 292 291 290 290 290 290 290 290 290 289 289 289 289 289 288 289 288 288 288 288 288 287 286 285 284 283 283 283 283
313 312 312 312 309 304 300 299 302 297 297 298 294 293 292 291 291 290 290 290 290 290 290 289 289 289 289 289 289 289 288 288 287 287 287 287 287 286 285 284 283 283 283 282
311 308 308 303 299 298 301 299 298 298 299 294 292 291 291 291 290 290 290 290 291 290 290 289 289 288 289 289 289 289 289 288 287 286 286 285 285 284 284 284 283 283 283 283
309 307 303 302 303 300 297 299 300 296 293 291 290 290 291 291 290 290 290 291 291 291 290 290 290 289 289 289 288 289 288 289 287 287 286 286 285 284 284 284 284 283 283 283
302 302 302 298 298 299 298 294 292 291 290 291 291 291 291 290 290 290 291 291 291 291 291 290 289 288 287 288 288 288 288 289 289 287 285 284 285 284 283 284 284 283 283 283
300 298 298 297 293 291 291 291 291 291 291 291 291 291 291 291 291 291 291 291 291 291 291 290 288 288 287 287 287 287 287 288 289 288 287 286 285 285 284 284 284 284 283 283
299 294 294 294 292 291 291 291 291 291 291 291 291 291 291 291 291 292 292 292 291 291 290 289 288 288 287 287 287 287 287 287 288 288 287 287 286 286 285 285 284 284 284 283
294 295 295 293 292 291 291 291 291 291 292 292 292 293 293 293 293 293 293 293 292 291 290 289 288 287 287 287 287 287 287 287 287 287 287 287 287 286 286 285 285 284 284 283
296 295 293 292 292 292 291 291 292 293 293 292 292 292 292 292 292 293 293 292 291 290 289 288 287 287 287 286 287 287 287 287 288 288 288 287 287 288 287 286 286 285 284 283
293 293 293 293 292 293 293 292 292 292 291 291 291 291 291 291 292 291 292 291 289 288 287 287 286 286 286 286 286 287 287 287 288 288 288 288 288 288 288 288 287 287 285 283
294 294 293 293 293 292 292 291 291 291 291 291 291 292 291 290 290 290 290 289 288 287 287 286 285 285 286 286 286 286 286 286 286 286 286 286 287 287 287 287 287 287 287 286
293 292 292 292 292 292 292 292 291 291 291 291 291 291 290 290 290 290 290 288 288 287 286 285 285 285 284 285 285 285 284 284 284 284 284 284 284 285 286 286 286 286 286 286
291 291 291 291 291 291 291 291 291 291 290 290 290 290 289 288 288 288 287 288 287 286 285 285 284 283 283 284 284 284 283 283 283 283 284 283 282 283 283 285 285 286 286 285

GFSNGP_850_thetae_006.txt.gz
Theta_e
312 311 312 312 312 313 312 310 311 311 309 309 309 307 308 309 308 308 308 305 304 303 302 303 302 299 298 298 296 295 295 295 294 293 293 291 291 290 290 291 292 292 290 289
315 311 310 312 311 310 311 311 310 312 311 310 310 310 309 309 309 309 308 305 303 302 302 300 299 298 297 296 295 295 295 294 294 293 291 291 291 290 291 292 292 292 289 289
304 306 305 306 308 309 309 309 309 311 310 308 308 309 309 309 309 310 308 305 302 301 300 299 299 297 296 295 294 295 294 294 293 292 291 290 290 290 291 292 291 290 290 290
303 300 304 308 307 309 311 312 310 310 309 309 310 310 311 311 311 309 308 304 301 300 300 299 297 296 295 294 294 294 293 293 292 291 292 290 290 290 291 291 291 291 291 288
303 303 304 307 312 311 312 311 309 310 308 309 310 310 310 311 310 309 306 303 301 300 299 297 295 295 294 295 294 293 293 291 291 292 292 290 289 290 290 291 291 290 288 288
296 301 301 305 308 312 311 311 310 310 308 308 308 304 309 311 310 308 304 302 301 299 298 296 295 295 295 293 292 291 290 291 292 292 291 291 289 290 289 290 289 289 289 288
295 298 303 303 311 311 312 310 311 312 311 309 306 310 311 310 309 306 304 304 299 298 296 296 295 293 291 290 289 289 289 289 290 291 291 290 289 289 289 289 289 288 288 287
299 299 306 306 310 310 311 310 312 313 313 312 312 309 308 307 306 305 304 299 298 297 296 294 291 290 289 289 289 289 289 289 289 290 290 290 289 288 287 288 288 287 286 287
304 305 306 308 310 313 312 311 312 313 313 313 311 309 308 306 305 303 299 298 297 295 293 290 290 289 289 289 289 289 289 289 289 290 291 290 288 287 287 288 287 287 287 286
307 309 308 310 311 312 312 312 313 313 313 313 312 310 308 305 299 298 296 299 295 293 291 290 290 289 289 289 289 289 289 289 289 290 290 290 287 287 287 287 287 287 286 285
306 309 311 312 313 313 314 314 313 313 314 313 312 309 306 301 300 297 300 294 292 291 290 290 289 289 289 289 289 289 289 289 289 289 289 289 288 287 287 287 286 284 284 283
307 311 310 311 312 313 313 314 314 313 313 312 310 307 301 301 298 299 293 292 291 290 290 290 289 289 289 289 289 289 289 289 289 290 289 289 288 287 287 286 285 284 283 283
311 312 312 314 314 314 314 314 313 313 311 310 306 302 300 298 297 292 292 291 290 290 290 290 290 289 289 289 289 288 288 288 288 288 289 289 288 288 287 286 285 284 283 283
313 313 313 313 313 313 313 313 312 310 307 303 298 296 299 296 292 292 291 290 290 290 290 290 290 290 289 289 288 288 288 288 287 288 288 288 288 288 287 286 285 284 283 283
314 313 313 312 312 312 311 310 306 298 297 298 298 300 297 292 292 291 290 290 290 290 290 290 290 289 289 289 288 288 288 288 288 287 286 287 287 288 287 286 285 284 283 282
312 312 311 311 307 304 303 298 298 298 298 298 298 295 292 292 291 291 290 290 290 290 290 290 290 290 289 288 288 288 288 288 288 288 287 286 286 286 285 285 284 284 283 282
310 307 305 302 301 298 299 299 298 298 297 298 294 292 291 291 291 291 290 290 290 290 291 291 290 290 290 288 288 288 288 288 288 288 287 286 285 285 285 284 283 284 283 283
306 304 301 300 299 300 299 298 296 296 294 293 291 290 290 291 291 290 290 290 291 291 291 291 291 290 289 288 287 287 287 287 287 287 288 287 285 285 285 284 283 283 283 283
302 301 300 299 298 297 297 297 293 292 291 290 291 291 291 291 291 291 290 291 291 291 291 291 291 290 288 288 287 286 286 286 286 287 288 288 286 285 284 284 284 283 284 283
299 296 296 294 292 294 294 294 292 291 291 291 291 291 291 291 291 291 291 291 292 292 292 291 291 290 289 288 287 287 286 286 286 287 287 288 287 286 286 285 285 284 284 283
294 294 294 293 292 291 291 291 291 291 291 291 291 292 292 292 292 292 292 292 291 293 292 291 291 290 288 287 287 286 286 286 286 287 287 287 287 286 286 286 286 286 285 284
295 296 294 293 292 292 291 291 292 292 292 292 292 291 291 291 291 291 291 291 291 292 292 291 289 288 287 286 286 286 286 286 286 287 287 288 288 287 287 287 287 287 286 286
295 293 293 293 293 293 292 293 293 292 292 291 291 291 291 291 291 291 291 290 290 290 290 289 287 286 286 285 286 286 286 286 286 287 286 286 287 287 287 287 287 287 287 287
293 293 294 293 293 293 291 291 291 291 291 290 290 290 291 292 291 291 290 290 290 289 289 288 287 287 285 285 285 286 286 286 285 285 285 285 285 286 286 286 286 286 286 286
293 293 292 292 291 291 291 291 291 291 291 290 290 290 291 291 290 290 289 289 288 289 289 287 287 286 285 285 284 283 283 284 284 284 283 283 283 283 283 283 284 284 285 285
292 292 292 291 291 291 290 289 288 287 287 286 286 287 287 288 288 288 288 288 287 287 288 287 286 285 284 284 283 283 283 283 283 283 283 283 283 283 283 283 282 283 283 284
291 290 290 290 289 287 286 285 285 285 284 284 284 284 285 285 286 285 287 287 287 287 287 286 285 284 283 283 283 282 282 281 281 281 281 281 281 281 281 282 283 283 282 282

GFSNGP_850_thetae_009.txt.gz
Theta_e
312 312 312 312 314 313 313 313 318 314 312 312 313 313 310 308 308 308 307 307 307 306 304 302 305 302 299 298 297 296 295 295 294 293 293 292 290 290 290 290 291 291 291 290
314 311 311 313 311 312 313 312 312 312 314 311 310 309 309 308 307 307 308 309 308 305 303 304 301 299 298 297 296 295 295 295 294 293 293 291 290 290 290 290 291 291 291 289
311 307 307 312 312 312 311 311 314 315 315 311 311 310 310 309 308 308 309 310 307 305 303 300 300 299 297 296 295 295 295 294 293 293 291 291 291 290 290 290 291 291 291 291
312 305 313 312 309 309 311 310 310 311 311 311 311 310 310 310 310 310 310 309 307 304 301 300 299 298 296 295 295 295 294 293 292 291 291 291 291 290 289 290 290 291 291 290
314 311 308 309 308 312 314 314 312 312 311 309 309 310 310 311 311 311 311 309 306 302 300 300 299 297 296 295 295 294 291 290 289 290 290 292 291 290 289 290 290 289 289 289
306 311 311 310 306 312 311 316 311 312 310 308 309 315 314 312 312 311 310 307 303 301 300 299 297 296 296 295 292 290 289 289 289 289 289 291 291 290 289 289 289 289 288 288
302 312 310 306 309 310 315 315 310 312 311 308 311 313 311 312 311 311 308 304 302 301 298 297 296 296 293 290 290 289 289 289 289 289 289 289 290 290 289 288 288 288 288 287
303 308 313 305 311 315 314 311 310 312 313 312 312 311 311 310 310 309 306 303 304 299 299 296 295 292 290 290 289 289 289 289 289 289 289 290 290 290 288 287 287 288 287 286
309 312 307 307 311 312 311 311 311 311 312 312 311 310 309 308 307 305 304 301 297 301 299 294 291 290 290 289 289 289 289 289 289 289 289 290 290 290 287 287 287 287 287 287
309 309 307 308 310 310 310 311 311 311 311 312 312 310 308 306 305 301 298 297 301 301 294 291 290 290 289 289 289 289 289 289 289 289 289 289 289 289 288 287 287 287 285 284
309 309 310 311 311 311 312 312 313 314 313 312 312 310 308 306 301 299 298 300 299 293 291 290 290 289 289 289 289 289 289 289 288 289 289 289 289 289 288 287 287 286 285 284
314 311 310 311 311 313 313 313 313 313 313 312 311 309 306 300 296 299 299 298 292 291 290 290 290 289 290 290 289 289 288 287 288 287 288 287 288 288 288 287 287 286 284 283
311 311 311 311 313 313 313 313 312 312 311 309 306 305 299 297 300 298 294 291 291 290 290 290 290 290 290 290 289 289 288 288 288 288 287 287 288 288 288 288 287 286 285 283
311 311 312 312 312 312 312 312 311 309 306 305 298 297 299 299 296 293 294 291 290 290 290 290 290 290 290 289 289 288 288 288 288 288 288 287 287 287 288 287 288 286 285 284
312 312 310 311 310 309 308 306 305 299 296 297 299 297 295 294 294 292 291 290 290 290 290 290 290 290 290 289 289 289 288 288 288 288 288 287 286 286 287 287 287 286 285 284
309 310 308 307 304 302 301 299 298 298 299 296 295 295 295 292 291 291 290 290 290 290 290 290 290 290 290 290 290 289 288 287 288 288 287 287 288 287 286 286 285 284 284 284
306 302 300 299 298 298 297 298 297 296 296 296 296 295 293 291 291 291 291 290 290 290 290 290 291 291 290 290 289 288 287 287 287 287 287 287 287 287 286 285 284 285 284 283
303 301 299 299 298 297 297 297 296 295 295 294 292 291 290 290 291 291 291 291 290 290 290 291 291 291 291 290 289 288 287 287 286 286 286 286 286 287 287 286 285 285 284 283
300 299 299 298 297 295 295 295 295 294 292 290 290 290 291 291 291 291 291 291 290 290 291 292 292 292 291 290 289 289 288 287 286 286 286 286 287 287 287 287 285 285 285 284
296 295 295 295 296 295 295 293 292 291 291 290 290 291 291 291 291 292 292 292 292 292 292 292 292 292 291 290 288 288 287 286 286 286 286 286 287 287 287 287 286 286 285 285
294 294 293 292 292 291 291 291 291 291 291 291 291 292 292 291 291 291 291 291 290 291 291 291 292 291 289 288 287 286 286 286 286 286 286 286 287 287 287 287 287 286 286 286
296 296 294 292 292 292 292 292 292 292 292 292 291 291 290 290 290 291 291 291 291 290 290 290 290 289 287 287 286 286 285 285 286 285 286 286 286 286 286 286 286 286 286 286
295 293 293 293 293 293 292 291 291 291 291 291 291 291 291 291 291 291 291 291 290 289 289 290 289 288 288 287 286 285 284 285 286 286 285 285 285 285 285 285 285 285 285 285
293 293 294 293 292 291 291 291 290 290 289 288 287 286 286 286 286 287 287 288 289 289 288 288 288 288 287 287 286 285 284 284 283 284 284 284 284 283 283 283 283 283 283 283
293 292 292 291 291 290 289 287 286 286 285 285 285 285 284 284 284 285 285 285 286 287 287 287 286 287 287 286 284 284 283 283 283 283 282 282 282 282 282 282 282 282 282 282
292 291 291 290 288 286 285 284 284 283 283 283 283 282 282 282 282 282 283 283 284 285 286 286 286 286 285 285 284 283 282 281 281 281 281 280 280 280 280 280 280 280 281 282
290 289 287 286 285 284 283 282 282 282 281 281 280 280 280 280 280 281 281 282 283 284 285 284 284 283 283 283 282 282 281 280 279 279 279 278 278 278 279 279 279 279 280 282

GFSNGP_850_thetae_015.txt.gz
Theta_e
322 321 320 320 320 320 320 319 321 319 316 316 317 317 317 318 318 319 321 320 319 317 314 312 310 307 306 305 305 301 300 299 299 298 298 297 296 296 295 294 294 294 294 294
323 321 320 320 319 318 319 319 318 318 318 318 318 317 317 317 318 318 319 319 318 315 313 311 309 307 306 306 304 301 300 299 298 298 297 296 295 295 295 294 294 294 294 294
320 319 320 322 320 319 319 319 319 319 319 319 319 317 316 317 317 317 317 318 316 315 313 311 309 306 306 304 302 300 299 298 298 297 296 295 294 294 294 294 294 294 293 293
321 317 323 317 317 317 318 318 318 318 318 317 317 317 317 317 317 317 316 316 315 314 313 312 309 306 304 303 301 299 298 297 297 295 294 293 293 294 294 294 294 293 293 292
327 319 317 316 315 315 316 316 316 317 316 316 317 317 317 317 316 316 315 315 315 314 313 312 308 305 303 302 299 298 298 296 294 293 293 293 293 293 294 294 293 293 292 292
318 327 327 319 315 316 317 316 315 315 316 315 317 319 316 317 315 315 315 315 314 314 313 310 306 303 301 299 299 297 296 294 293 292 292 292 293 293 293 293 293 292 291 290
321 325 321 316 314 315 316 318 316 316 315 316 316 315 317 316 314 315 315 315 314 313 311 308 303 299 300 298 297 294 294 291 292 292 292 293 292 292 293 293 293 292 291 290
323 323 323 313 315 318 320 316 316 315 315 317 316 316 316 315 313 314 314 314 312 309 305 300 299 299 297 295 294 294 291 291 292 292 292 292 292 292 293 293 292 292 291 290
319 320 316 314 315 315 315 315 315 315 315 315 315 315 315 315 313 312 313 309 305 301 298 298 300 298 294 294 294 291 290 291 292 292 292 292 292 292 292 292 292 291 291 290
317 316 315 314 314 314 314 314 314 314 315 315 315 316 315 315 311 308 306 301 299 298 298 299 297 295 292 292 291 290 290 290 290 291 291 290 290 291 292 292 291 291 290 290
317 316 315 315 315 315 315 315 316 316 316 316 314 315 315 313 307 304 299 297 298 299 298 295 293 292 292 291 290 290 290 290 290 290 290 291 290 290 290 290 291 291 290 290
318 316 316 315 315 315 315 316 314 314 314 310 310 311 310 303 300 299 297 298 298 296 294 293 293 293 291 290 290 290 290 289 290 291 291 291 290 290 289 289 289 289 289 289
316 315 315 315 314 312 310 309 307 306 305 303 302 302 300 299 298 298 298 297 296 294 293 293 293 291 290 290 290 290 290 290 290 291 291 291 290 290 289 289 289 289 288 288
314 315 316 311 310 306 305 304 303 303 303 301 301 300 299 299 298 298 297 295 294 293 293 291 290 290 290 290 290 290 290 291 291 291 291 290 290 290 289 288 288 288 288 288
310 310 308 306 304 303 302 302 301 299 298 297 298 297 297 297 296 296 295 294 293 292 290 290 290 290 291 291 290 290 291 291 291 290 289 288 288 288 288 288 288 288 287 287
307 306 305 303 301 299 300 298 298 299 298 298 297 297 297 296 296 294 293 292 291 291 291 291 291 290 290 290 291 292 292 291 291 290 289 289 288 288 288 288 288 288 288 288
305 303 302 300 299 299 300 299 299 299 299 298 297 294 291 291 290 292 291 291 291 291 291 291 291 290 290 290 292 292 292 292 291 290 290 289 289 288 287 287 287 287 287 288
304 302 300 300 300 299 299 298 296 295 292 291 291 291 291 291 291 291 291 291 291 291 291 291 291 291 291 292 292 292 292 292 291 290 290 289 288 288 288 287 287 287 287 287
300 300 299 299 299 298 295 293 292 291 291 291 291 291 291 291 291 291 291 291 290 291 293 292 291 291 291 290 290 291 291 291 290 290 289 288 287 287 288 287 287 287 287 287
299 297 296 294 294 292 291 292 292 292 292 291 291 291 290 290 290 290 290 290 291 292 291 291 290 290 290 290 290 290 290 290 289 289 288 287 287 287 287 287 287 287 286 287
295 293 292 292 292 292 292 292 291 291 291 291 290 289 288 288 287 286 286 286 287 288 287 286 285 285 286 287 288 289 290 289 289 288 288 287 286 286 287 287 287 287 287 287
296 293 292 292 292 292 291 291 291 290 289 288 287 286 285 286 285 286 285 286 286 285 283 283 284 284 283 284 285 287 287 288 288 288 287 286 285 285 285 286 286 286 286 286
294 293 293 293 293 292 291 291 290 289 287 286 285 284 284 284 285 284 284 284 282 281 281 281 282 282 283 284 284 285 286 286 287 287 285 284 284 283 283 283 283 283 283 283
293 293 293 293 292 291 289 289 287 286 285 284 283 282 281 282 281 282 281 280 279 279 279 279 280 281 281 281 282 283 283 284 284 283 282 282 281 280 279 280 281 281 281 281
293 293 292 290 288 287 286 286 284 284 283 282 282 281 280 280 279 279 278 277 277 277 277 277 278 278 278 278 278 279 279 279 279 279 279 278 279 279 277 278 279 279 279 279
290 289 288 288 286 285 284 283 282 282 280 280 279 279 278 278 277 276 275 275 275 274 274 275 276 276 277 276 276 276 276 276 277 277 276 276 277 276 276 276 277 277 277 277
289 286 285 284 283 282 281 280 279 279 279 278 277 278 277 276 275 274 274 274 273 273 273 273 272 272 273 274 273 273 274 274 274 274 274 274 274 273 273 274 274 274 274 275

GFSNGP_850_thetae_018.txt.gz
Theta_e
321 321 322 322 321 321 320 321 322 322 319 319 318 319 318 318 319 318 319 322 322 322 320 318 316 314 311 308 307 305 305 301 300 300 299 299 298 297 296 296 295 295 294 294
325 322 322 321 321 321 320 319 319 319 319 319 319 318 318 317 317 318 317 318 320 321 321 318 315 314 311 308 307 306 303 300 300 299 299 298 297 295 295 295 295 295 294 294
325 320 321 321 322 320 321 319 319 320 320 319 319 318 318 317 317 317 317 317 318 319 320 318 315 313 311 308 307 306 302 300 300 299 298 297 295 295 294 294 294 295 294 294
327 318 323 318 318 318 318 318 319 318 318 318 318 318 317 316 316 316 317 317 317 317 317 316 314 312 310 307 306 304 301 300 298 298 296 294 293 294 294 294 294 294 294 293
328 323 319 317 317 316 316 317 317 317 317 317 316 316 317 317 317 316 315 315 315 315 316 315 314 312 309 306 304 302 300 298 298 295 295 293 293 293 293 293 294 294 294 293
322 328 327 321 317 316 317 317 316 315 316 316 316 323 319 317 316 315 315 314 315 315 315 314 313 311 307 304 302 299 299 296 296 294 292 293 293 293 293 293 293 293 293 292
324 326 325 318 316 315 318 322 317 316 316 316 318 317 317 317 316 315 315 315 315 315 314 313 310 307 303 300 299 297 296 297 294 292 293 293 293 293 292 292 293 293 292 292
327 323 322 315 315 318 322 317 316 316 316 316 316 316 316 315 316 315 313 314 313 312 308 303 301 301 300 298 295 296 294 293 292 291 292 292 292 291 292 292 293 293 292 292
323 324 318 315 315 315 315 315 315 315 315 315 315 315 316 316 316 312 312 308 305 304 302 299 299 298 298 297 294 293 293 293 290 290 291 290 290 290 290 291 292 292 292 291
321 316 316 316 315 315 314 315 316 316 316 317 317 316 316 315 313 309 304 301 300 299 299 298 298 298 295 294 292 293 293 291 290 290 290 290 290 291 290 291 292 292 292 291
318 317 316 315 316 316 316 316 317 317 316 313 313 314 314 309 304 301 301 299 298 299 298 298 298 298 296 294 293 292 290 290 290 290 290 290 291 291 291 290 289 290 291 291
324 318 318 317 317 316 316 314 312 312 309 306 307 305 306 302 301 299 299 299 298 299 298 298 296 294 293 292 290 290 290 290 290 290 290 290 291 291 291 290 289 289 289 289
318 317 316 315 312 310 309 308 307 306 306 304 304 303 303 302 301 300 299 299 298 297 295 294 293 292 291 290 290 290 290 290 290 290 290 291 291 290 290 290 290 289 289 288
314 315 315 312 309 308 305 304 305 304 302 301 300 299 299 299 298 298 297 296 295 294 293 293 291 290 291 291 291 291 290 290 290 291 291 292 291 290 289 288 288 289 289 288
312 310 309 307 306 303 302 302 301 300 299 299 299 298 298 298 297 296 295 294 294 292 292 293 293 291 291 291 292 292 291 291 291 291 291 290 290 289 289 288 288 288 288 288
309 308 307 305 302 300 300 300 300 299 299 299 298 298 298 297 296 294 294 293 292 291 291 291 291 291 291 291 291 292 292 292 292 292 291 291 290 290 290 289 288 288 288 288
306 305 303 301 301 301 300 300 299 299 298 296 293 291 291 291 291 291 291 291 291 291 291 291 292 292 292 291 291 292 292 292 292 292 292 291 291 290 290 289 289 288 288 287
306 304 301 301 300 299 299 297 295 293 292 291 291 291 291 291 291 291 290 290 290 290 292 292 292 292 291 290 290 290 290 290 291 291 291 291 291 290 288 288 287 287 287 288
302 301 300 300 299 298 295 292 292 291 291 291 291 291 290 290 290 289 288 287 287 291 290 289 289 288 286 285 285 287 288 289 289 290 290 290 290 289 288 287 287 287 287 287
299 297 298 297 295 292 291 292 293 291 291 290 290 289 288 287 286 286 286 286 287 287 287 287 285 283 283 284 284 284 284 285 286 287 289 290 290 288 288 287 286 286 287 287
296 294 292 292 292 292 292 291 291 291 290 289 288 287 286 286 285 285 286 285 286 286 285 283 281 281 282 281 281 282 283 284 284 285 286 287 288 288 287 286 285 286 286 286
294 293 292 292 292 291 291 291 290 289 288 287 287 286 285 284 283 284 283 284 284 282 280 279 280 279 279 280 281 281 282 283 285 285 286 286 286 285 285 284 282 282 283 284
294 293 293 293 293 291 290 290 289 288 287 286 286 285 283 282 282 281 282 281 280 279 278 278 278 278 278 278 278 279 279 279 280 281 281 281 281 281 280 280 280 280 280 280
294 293 293 293 291 290 288 288 286 286 286 284 283 282 281 280 280 280 280 278 277 277 277 276 276 277 277 277 277 277 276 275 277 277 277 277 277 277 277 277 277 278 278 278
293 293 292 291 289 287 286 286 285 284 284 282 282 281 280 279 279 278 277 276 275 275 274 274 273 273 274 274 274 273 274 273 274 275 275 275 275 275 274 275 275 276 276 276
291 290 289 288 287 285 285 284 283 282 281 281 280 279 279 278 277 276 275 275 274 273 273 272 272 271 271 271 270 270 270 270 271 271 272 272 272 272 272 273 273 273 273 273
289 287 286 285 285 284 282 281 280 280 279 279 278 277 277 277 276 275 274 273 273 272 271 271 271 270 270 269 269 268 268 268 269 268 269 270 270 270 270 270 270 270 270 271

GFSNGP_850_thetae_021.txt.gz
Theta_e
321 322 321 321 322 321 319 318 316 317 319 317 316 315 316 318 318 318 320 322 322 320 319 319 318 317 316 315 313 309 307 305 304 301 301 300 299 299 298 297 296 295 294 294
322 321 319 319 319 319 319 319 318 317 316 315 316 317 316 316 317 318 318 317 318 321 320 319 318 317 316 314 311 308 307 305 303 300 300 300 299 298 295 294 294 294 294 295
320 315 315 312 315 318 318 318 318 315 315 315 314 315 316 317 316 317 317 317 317 320 321 320 318 317 316 314 311 308 307 306 302 300 300 298 298 295 294 294 294 294 294 294
314 312 310 314 316 315 317 316 314 314 315 314 314 316 317 316 316 316 317 317 316 316 317 318 318 316 315 313 310 307 306 303 300 300 298 296 295 294 293 293 293 293 293 294
312 313 314 314 316 316 315 314 313 313 313 315 315 317 317 315 315 315 314 314 314 314 315 316 316 315 313 311 307 306 302 300 299 297 296 297 293 293 293 293 293 293 293 293
312 314 310 314 315 316 315 313 315 314 314 314 314 309 314 316 316 315 315 315 315 315 315 315 314 313 310 307 305 302 299 299 297 296 297 293 292 294 293 293 292 292 292 293
308 309 313 318 315 315 311 312 316 316 316 316 314 316 316 315 316 314 314 314 314 315 314 311 309 309 306 302 300 298 298 297 297 297 294 293 293 293 292 292 291 292 293 293
312 315 317 316 314 312 316 315 315 315 315 315 315 315 316 316 314 314 313 312 312 312 309 305 304 304 301 299 297 297 298 299 299 296 293 292 291 291 290 290 290 291 292 292
315 313 315 314 315 317 315 315 315 315 316 316 317 316 315 313 311 309 310 310 308 308 304 302 301 300 301 301 300 301 300 298 293 293 291 290 290 290 290 290 290 291 292 292
314 315 316 315 314 315 315 316 316 317 317 316 315 314 312 310 307 306 304 304 303 302 301 301 300 299 299 299 298 295 295 293 292 290 290 290 290 290 291 291 291 290 290 291
315 315 316 316 316 316 316 316 315 315 314 312 313 310 309 307 305 302 301 300 300 300 300 299 299 298 296 296 294 293 291 290 290 290 290 290 290 290 291 291 291 290 289 289
308 317 315 314 314 316 315 313 309 312 310 307 308 306 305 303 301 300 300 300 299 299 298 296 294 294 293 292 290 290 290 290 290 290 290 290 290 290 290 291 291 290 290 290
317 316 314 311 312 311 311 309 307 308 307 306 304 303 303 301 300 299 298 298 296 295 294 294 293 293 291 291 290 290 290 290 290 290 290 290 290 291 291 291 290 289 288 287
315 313 309 310 306 307 308 307 306 304 302 300 299 298 298 298 297 296 296 295 295 294 293 292 292 292 292 292 291 291 292 292 291 291 291 291 291 291 291 289 290 290 289 288
311 313 309 306 306 305 304 302 301 300 298 298 298 298 297 296 296 295 294 294 293 292 291 291 291 291 291 291 291 291 291 292 292 292 292 292 291 291 290 290 290 290 289 288
307 307 306 306 303 301 300 299 299 298 298 298 298 297 296 296 295 294 293 292 291 290 290 290 291 292 292 292 291 291 290 290 291 291 292 292 292 292 292 291 291 290 289 288
306 304 303 301 301 300 300 299 299 299 298 295 292 291 291 291 291 290 290 290 290 290 291 291 290 290 289 288 287 286 285 285 286 288 288 289 289 290 290 290 290 290 288 287
306 305 303 301 300 300 299 298 296 293 292 291 291 291 290 290 289 288 287 286 286 288 289 288 288 287 286 284 282 283 284 284 283 283 285 285 285 287 289 288 290 290 288 287
303 301 301 300 300 298 295 293 292 291 291 291 290 289 288 287 286 286 286 286 286 286 286 285 285 284 281 280 280 280 280 281 282 283 284 284 284 285 285 286 289 289 287 286
300 300 300 299 296 295 292 292 291 291 290 289 288 287 287 287 286 286 285 284 285 284 284 282 280 279 279 279 279 280 280 281 281 281 283 283 284 285 286 287 287 286 285 286
299 298 297 295 292 292 292 292 291 290 289 288 288 288 286 285 284 283 282 283 282 282 280 279 279 278 278 278 278 278 278 278 278 279 279 280 281 281 282 282 283 282 283 284
294 293 292 292 292 291 291 290 290 289 288 288 288 286 285 283 282 281 281 281 281 279 278 277 277 277 277 276 277 277 277 276 277 277 277 277 277 277 278 278 279 279 279 279
293 292 292 292 291 291 290 289 288 288 287 286 286 284 283 281 281 280 280 279 278 278 277 276 275 275 275 275 275 275 275 274 275 274 274 274 274 274 274 275 275 276 276 277
293 292 293 292 291 289 289 287 286 286 285 284 283 282 281 280 279 279 278 277 277 276 275 274 273 273 273 273 273 273 273 272 272 272 272 272 272 272 273 273 273 273 274 274
293 292 292 290 288 287 287 285 285 285 284 282 282 281 279 279 278 278 277 276 275 274 274 273 273 272 272 272 271 271 270 270 270 270 270 270 270 271 271 271 271 271 272 272
291 290 289 288 287 287 286 285 283 282 281 280 280 278 278 278 277 277 276 275 274 273 272 272 271 271 271 270 269 269 269 269 269 269 270 269 269 269 269 270 270 270 270 270
289 288 287 286 285 285 283 282 281 280 279 279 278 277 277 277 276 275 274 274 273 272 271 271 270 270 270 269 268 268 268 268 268 269 269 268 268 268 269 269 269 269 269 269

GFSNGP_850_thetae_024.txt.gz
Theta_e
317 320 320 319 319 320 318 316 315 316 316 315 315 313 313 316 317 321 324 324 323 321 321 320 319 318 318 318 317 316 314 310 307 306 305 301 301 299 299 297 297 295 294 293
320 317 318 319 317 317 317 318 317 316 315 313 313 313 313 315 316 316 318 319 321 322 320 318 318 318 318 317 316 315 312 309 307 305 302 301 300 298 296 296 296 294 293 294
318 313 313 314 314 315 317 316 317 316 314 312 312 312 313 316 316 316 316 317 317 319 319 319 319 319 318 317 316 315 310 307 305 303 301 300 298 297 297 298 296 293 294 294
312 309 313 316 314 314 314 312 313 312 312 313 314 314 314 315 315 315 315 315 315 315 316 318 319 318 318 317 315 312 308 305 304 301 299 298 297 297 298 295 294 294 293 293
311 311 313 314 314 313 313 314 313 312 312 314 316 315 315 314 314 314 314 314 314 314 314 315 317 317 316 315 311 307 305 302 298 297 296 296 297 298 297 295 294 293 293 293
310 312 310 311 314 314 312 313 314 313 313 313 312 309 312 314 315 315 314 314 314 314 314 314 315 316 315 312 308 304 299 297 296 296 297 298 299 299 294 294 293 292 291 291
303 306 309 311 314 313 310 309 315 315 315 315 313 313 315 314 314 314 313 313 313 313 313 313 312 312 311 307 302 298 296 296 297 298 300 300 297 293 293 292 291 290 290 290
312 310 313 315 313 311 310 314 314 314 314 315 315 315 314 313 313 312 312 311 310 310 309 305 303 304 303 302 301 300 300 299 299 300 300 295 293 292 290 290 290 290 289 290
311 311 313 313 315 316 315 314 314 315 315 315 315 313 311 310 309 309 308 306 305 305 304 302 301 300 300 302 300 300 300 299 296 293 293 291 290 290 290 290 290 290 290 290
313 315 315 313 315 314 314 315 316 316 316 316 314 311 309 307 305 304 302 301 300 300 300 301 300 299 299 298 297 295 294 292 291 290 290 290 290 289 289 290 290 290 290 290
312 314 315 315 315 315 315 315 315 314 314 313 313 307 306 302 301 300 300 299 300 300 299 298 298 296 294 292 291 290 290 290 289 290 290 290 289 289 289 290 290 290 290 290
310 314 313 313 312 313 313 312 311 313 309 308 308 305 303 301 300 300 300 299 298 297 296 294 293 293 292 291 291 290 290 290 290 290 290 290 290 290 290 290 290 290 290 290
316 316 314 311 311 310 312 309 308 308 306 305 303 303 302 301 299 298 296 295 294 294 294 293 292 292 292 291 291 291 291 290 291 291 292 291 291 291 291 291 290 290 290 290
316 314 308 309 307 307 308 306 306 304 302 301 300 298 298 296 296 295 295 294 294 293 291 292 292 292 291 291 291 290 290 291 291 291 291 291 291 291 291 291 291 290 290 290
312 313 312 308 307 306 305 303 301 299 298 298 297 297 296 295 294 294 294 293 293 291 290 290 290 291 291 291 291 291 290 290 289 288 287 288 289 289 289 290 290 291 291 291
309 310 306 306 304 302 301 300 301 298 298 297 297 296 296 295 295 293 292 290 290 290 290 290 290 289 288 287 286 286 285 283 283 282 282 282 283 284 286 286 287 288 289 289
306 303 304 302 300 299 299 299 299 298 297 297 295 292 291 291 290 290 289 289 288 288 287 286 287 287 286 285 283 281 281 280 280 280 281 282 283 283 284 284 284 284 285 288
309 306 304 303 300 300 299 298 298 296 294 292 291 290 290 289 288 287 287 286 287 286 286 286 284 283 281 280 280 279 279 279 280 280 280 281 282 282 282 283 284 285 285 285
306 304 302 301 300 299 298 296 294 292 291 290 290 289 288 288 288 287 286 285 285 284 284 283 282 280 279 279 278 278 278 278 278 278 279 279 280 280 281 281 281 283 284 285
303 302 300 299 298 298 294 292 291 291 290 289 288 288 288 287 286 285 284 284 283 282 282 280 279 278 278 277 277 277 277 277 277 277 277 277 277 277 278 279 279 279 280 281
300 299 299 297 296 295 292 291 290 290 288 287 287 287 286 285 284 283 282 282 281 280 279 278 277 277 277 276 276 276 276 276 275 275 275 275 275 275 275 276 276 276 277 278
297 297 298 296 292 292 291 290 289 288 288 287 287 286 284 284 283 282 281 280 279 278 277 277 276 276 276 276 275 275 274 274 274 274 273 273 273 273 273 274 274 274 274 275
297 294 292 292 291 291 289 288 287 287 287 287 286 284 283 282 281 280 279 278 277 276 276 275 275 275 275 274 274 274 273 273 272 272 272 272 271 271 271 271 272 272 272 273
292 292 291 291 290 289 288 287 287 286 286 285 284 282 281 280 279 279 278 277 276 275 275 275 275 274 274 273 273 273 272 272 271 271 271 270 270 270 270 270 270 270 270 271
292 292 291 289 288 287 287 286 285 284 284 282 281 280 279 279 278 278 277 276 275 274 274 274 274 273 273 272 272 271 271 270 270 270 270 269 269 269 269 269 269 269 269 269
291 290 288 287 286 285 284 284 284 283 281 280 279 279 278 277 277 276 276 275 274 273 273 273 273 272 271 271 271 270 270 270 269 270 269 269 268 268 269 268 269 269 269 269
289 288 287 285 284 284 283 282 281 280 279 278 278 277 277 276 275 275 274 273 272 272 272 272 271 271 270 270 270 270 269 269 269 268 268 268 268 268 268 268 268 268 268 268

GFSNGP_850_thetae_027.txt.gz
Theta_e
314 314 318 318 318 317 316 315 315 316 314 315 313 312 312 313 316 318 322 322 324 326 327 326 326 324 322 322 320 319 317 317 316 315 313 309 306 303 300 299 298 297 295 298
318 316 316 318 316 316 315 316 314 315 314 312 312 312 312 313 315 318 320 322 323 324 324 324 323 322 321 320 319 318 317 317 316 313 308 305 302 300 299 297 295 296 298 297
316 313 313 313 313 314 315 314 315 315 313 312 312 311 311 313 315 316 317 317 317 318 319 319 319 319 318 319 318 318 317 315 312 307 305 302 300 298 296 295 297 298 299 295
311 309 313 315 313 313 313 312 311 311 312 312 312 312 313 314 314 314 314 314 314 315 315 316 316 317 317 317 317 316 314 312 309 304 303 300 298 296 298 298 299 299 296 293
312 312 313 315 312 312 312 314 312 311 311 313 313 314 313 314 314 314 314 314 314 314 314 314 315 316 316 316 315 313 309 306 304 302 299 296 296 297 298 298 299 296 294 293
307 312 313 313 312 313 311 312 312 311 311 312 312 307 311 313 314 314 314 314 314 314 314 313 314 314 314 313 311 308 304 301 297 296 296 297 297 298 299 300 295 293 292 290
304 307 308 308 312 311 312 311 313 313 313 312 311 311 314 313 313 313 313 313 313 312 312 312 311 311 309 307 303 300 298 296 296 296 297 297 299 299 297 294 292 290 290 290
305 306 312 311 312 310 309 312 314 314 315 315 315 314 313 312 311 311 310 309 309 309 309 306 305 305 304 302 300 299 300 300 300 300 299 298 295 293 292 291 290 290 289 290
311 311 310 313 312 313 315 315 314 314 314 314 314 312 311 309 308 306 306 305 304 304 302 300 299 299 300 301 302 301 299 298 295 293 292 291 290 290 290 290 289 289 289 289
311 313 313 312 315 315 314 314 314 314 314 314 313 309 308 306 304 303 302 302 301 301 300 300 299 299 298 296 295 293 291 291 290 289 289 289 289 289 289 289 289 289 289 289
311 314 314 314 314 314 314 314 314 315 314 313 312 307 306 303 302 301 300 300 300 299 299 296 294 293 292 291 291 290 290 290 290 290 290 290 290 290 290 289 289 289 290 290
310 314 313 313 313 313 314 314 314 314 311 308 309 307 303 301 300 299 299 298 297 295 294 293 293 292 291 291 291 291 290 290 290 290 290 290 290 290 290 290 291 291 291 291
313 314 314 313 311 311 313 312 311 311 309 307 304 304 302 300 299 297 295 294 294 293 293 293 292 292 292 291 291 290 290 290 290 290 290 290 290 290 290 289 288 288 289 290
315 314 308 309 308 309 310 308 307 306 304 304 302 301 300 298 296 295 294 294 293 292 291 291 291 291 290 290 290 290 289 288 287 286 285 284 283 283 282 282 284 285 287 287
312 313 313 310 307 306 306 305 304 302 301 299 298 298 297 296 295 294 294 293 292 291 290 290 290 290 289 288 287 286 285 283 282 282 281 281 281 281 281 282 282 283 283 283
309 310 308 308 305 303 303 302 302 299 298 297 297 296 295 295 294 293 292 291 290 290 289 288 287 287 286 285 284 282 282 281 280 280 280 280 280 280 280 281 281 281 282 283
307 302 303 302 302 300 300 300 300 298 297 297 296 295 295 294 291 290 289 289 288 287 287 287 286 284 283 282 281 281 280 280 279 279 279 278 279 279 279 279 280 279 280 281
310 308 306 307 303 301 299 299 298 297 296 295 293 291 290 290 289 287 287 287 287 286 285 285 284 282 281 280 280 279 279 278 278 277 277 277 277 277 277 278 278 279 279 280
308 307 305 303 302 300 299 298 297 296 293 291 290 289 288 288 288 287 286 285 284 284 284 283 281 280 279 279 278 278 277 277 277 276 276 276 276 276 276 276 276 276 276 277
304 304 302 301 299 299 298 296 294 292 290 289 288 288 288 288 287 286 285 284 283 283 282 280 279 278 278 277 277 277 276 276 276 275 275 275 275 274 274 274 274 274 275 275
302 301 300 299 298 297 294 293 292 290 289 287 288 289 288 286 285 284 283 282 282 281 280 279 278 277 277 277 276 276 275 275 275 275 274 274 274 273 273 272 272 273 273 273
299 299 298 295 295 294 292 290 290 289 288 288 287 287 286 284 283 282 282 281 280 279 278 277 276 276 276 276 275 275 275 274 274 273 273 273 272 272 272 271 271 271 271 271
297 296 296 296 293 291 290 288 287 287 287 286 286 284 283 283 282 281 280 279 278 277 276 275 275 275 275 275 274 274 273 273 273 272 272 271 271 271 270 270 270 270 270 270
295 293 293 292 291 290 288 286 286 286 285 285 284 283 282 281 280 279 278 277 276 275 274 274 274 273 273 273 273 273 272 272 272 271 271 271 270 270 270 270 270 269 269 269
292 291 290 289 288 287 286 285 285 284 284 283 282 281 280 279 278 278 277 276 275 274 274 273 273 272 273 273 273 272 271 271 271 270 270 270 270 269 269 269 269 269 269 269
291 290 288 287 287 286 285 284 284 283 282 281 280 279 278 278 277 276 275 274 274 273 272 272 272 272 272 271 271 271 270 270 270 269 269 269 269 269 269 269 269 268 268 268
288 287 286 285 284 284 284 283 283 282 281 280 279 278 277 276 275 274 274 273 272 272 271 271 271 270 270 270 270 270 269 269 269 268 269 269 268 268 268 268 268 268 268 268

GFSNGP_850_thetae_030.txt.gz
Theta_e
313 314 315 316 318 314 315 314 315 315 312 313 312 311 312 313 314 314 316 320 322 323 326 327 328 328 327 327 327 326 323 321 319 317 315 313 311 308 303 301 299 298 297 296
317 316 316 317 315 314 314 314 313 313 313 310 311 312 312 312 315 317 319 320 321 322 322 323 324 324 324 324 324 323 320 318 316 314 312 311 308 304 302 300 299 297 296 295
316 313 314 314 313 314 314 313 314 314 312 310 311 311 310 312 315 316 317 317 317 318 318 318 318 317 317 317 318 318 318 317 315 312 310 308 305 302 300 299 297 296 296 297
310 309 313 315 313 313 312 311 311 310 311 310 310 311 312 312 313 314 314 314 314 314 314 313 313 313 315 316 316 315 315 314 311 309 307 304 301 298 297 296 296 297 297 297
313 312 312 314 311 311 312 312 310 309 310 310 312 312 311 311 312 313 313 313 313 313 313 313 313 314 314 315 314 312 310 308 307 305 303 300 297 296 297 297 297 297 298 298
306 312 314 313 312 311 310 311 309 311 310 310 311 304 308 309 311 311 312 313 313 313 313 312 312 312 311 311 310 307 305 303 300 298 297 297 297 298 297 298 298 299 296 293
302 307 310 310 310 311 312 312 311 313 312 312 308 308 311 309 310 311 311 312 311 311 312 311 309 307 308 306 304 301 300 299 298 298 299 298 298 299 298 298 294 292 292 290
305 306 316 309 311 311 310 310 312 313 314 312 313 313 312 311 311 310 310 308 308 308 307 305 304 304 302 300 298 298 298 299 300 299 299 297 294 293 291 290 290 290 290 289
312 312 311 311 311 312 312 312 313 314 314 313 313 313 312 310 309 307 306 305 304 304 302 300 299 300 300 300 299 298 296 294 292 291 290 290 289 289 289 289 289 289 289 289
311 311 309 313 313 313 313 314 314 314 314 314 313 312 310 307 306 305 303 302 301 301 300 299 298 298 297 294 292 291 290 290 290 290 290 290 289 289 289 289 289 289 290 290
309 312 313 313 313 314 314 314 314 314 314 313 313 309 308 305 303 302 301 300 299 300 299 297 295 294 292 291 291 291 290 290 290 290 290 289 289 290 290 290 290 290 290 290
312 312 314 312 314 313 313 313 313 313 313 311 311 309 305 303 301 300 300 299 298 296 295 293 293 292 292 291 291 290 290 290 290 290 289 289 288 287 286 285 284 283 283 283
314 314 314 314 313 312 312 312 313 313 312 310 306 306 303 301 300 299 298 296 295 294 293 292 292 291 291 290 290 290 289 288 287 285 284 283 283 283 283 283 282 281 281 282
314 314 310 310 310 311 312 311 311 310 308 307 305 302 301 300 298 297 295 294 293 292 292 291 291 290 290 289 288 287 286 284 283 283 282 282 281 280 280 280 280 280 280 280
311 313 314 312 309 309 309 308 307 305 304 302 302 301 300 298 296 294 294 293 292 291 290 290 289 289 287 286 285 284 283 282 282 281 280 280 279 279 279 279 279 279 279 280
309 311 309 310 307 306 306 305 306 303 302 301 300 298 297 296 294 294 293 292 291 290 289 288 287 286 285 284 283 282 281 281 280 279 279 279 278 278 277 277 277 278 278 278
308 301 303 303 304 303 304 304 305 303 300 299 297 296 295 294 293 292 291 290 289 287 287 286 285 284 283 282 281 280 280 279 279 279 278 277 277 277 276 276 276 276 276 276
310 309 307 309 306 303 301 302 301 299 298 297 295 294 294 293 291 289 288 287 287 286 285 284 283 282 281 280 280 279 279 278 278 277 277 276 276 275 275 275 275 275 275 275
308 308 306 305 303 303 301 299 298 297 295 295 295 292 290 289 288 288 287 286 285 284 284 283 282 281 280 279 279 278 278 277 277 276 276 275 275 275 274 274 274 273 273 273
305 305 304 303 301 300 298 296 295 295 295 292 291 289 288 287 287 286 285 284 284 283 282 281 280 279 279 278 278 277 277 276 276 275 275 274 274 274 273 273 273 273 272 272
304 302 301 300 298 297 296 296 295 293 291 289 288 288 288 287 285 284 284 283 283 282 280 279 279 278 277 277 276 276 275 275 275 274 274 274 274 273 273 272 272 272 271 271
300 299 298 297 297 296 295 294 292 290 287 287 287 287 286 286 284 283 282 281 280 279 279 278 277 277 276 276 275 275 274 274 274 273 273 273 273 272 272 271 271 271 270 270
297 297 297 296 295 293 291 289 288 287 287 286 286 285 284 283 282 281 280 280 279 278 278 277 276 275 274 274 274 274 273 273 273 272 272 272 271 271 270 270 270 270 270 270
295 294 294 293 292 290 288 286 285 285 285 284 283 283 282 281 280 279 279 278 277 277 276 275 274 273 273 272 272 272 272 272 272 271 271 271 270 270 269 269 269 269 269 269
293 292 291 290 288 287 286 285 284 284 284 283 282 281 280 280 279 278 278 277 276 275 274 273 272 271 271 271 271 271 271 271 271 270 270 269 269 269 269 269 269 269 269 269
290 289 288 287 286 285 285 285 284 284 283 283 282 281 280 279 278 277 276 275 274 273 272 272 271 270 270 270 270 270 270 270 270 269 268 268 269 268 268 268 268 268 268 268
286 286 285 285 284 284 283 283 282 282 281 280 280 279 278 277 276 275 274 273 272 272 271 270 270 269 269 269 269 269 269 269 269 268 268 268 268 267 267 267 267 268 268 268

GFSNGP_850_thetae_033.txt.gz
Theta_e
314 314 316 318 318 317 318 319 322 321 316 317 317 316 315 313 313 314 314 316 320 321 323 325 326 327 328 328 328 327 326 325 324 323 320 319 317 314 311 307 303 300 299 298
315 315 315 317 316 317 317 315 316 315 316 315 313 312 312 311 314 316 318 319 320 321 321 322 322 323 322 321 320 320 320 319 320 319 316 314 311 308 305 302 300 299 297 296
318 314 316 318 316 316 316 315 317 318 319 313 313 312 311 313 315 314 315 316 317 317 317 317 317 316 315 315 315 316 316 316 315 314 312 310 309 306 303 300 299 297 296 295
317 313 321 319 313 314 317 315 314 313 313 312 312 310 310 312 313 312 312 313 313 313 313 313 313 313 314 314 314 315 314 314 313 311 309 307 306 303 301 299 296 297 298 298
319 318 316 314 313 315 316 317 313 314 312 311 310 310 308 309 310 311 312 312 313 313 313 313 313 312 312 312 312 312 311 309 308 306 305 304 302 300 298 297 299 298 298 298
311 319 321 318 314 311 312 317 313 312 312 312 311 318 314 308 309 311 311 312 312 312 312 312 311 310 309 308 308 308 306 305 303 302 300 299 298 298 298 298 297 298 298 297
312 320 318 313 311 311 318 320 312 311 312 312 312 311 311 308 309 310 310 310 310 310 311 310 308 307 307 306 304 300 299 299 298 298 298 298 298 298 298 297 295 293 292 291
312 317 321 310 309 316 317 312 312 311 312 311 311 310 309 308 309 308 308 308 308 309 308 305 304 305 303 301 298 298 299 299 299 299 298 296 293 291 290 290 289 289 289 289
319 321 316 310 314 313 313 312 311 312 312 312 310 309 308 307 306 305 306 305 304 305 303 301 301 301 301 299 299 299 297 295 293 291 290 290 290 289 289 289 289 290 290 290
316 315 313 311 311 312 312 313 312 313 313 312 311 308 307 305 304 303 302 302 302 302 301 300 298 298 297 294 292 291 291 290 290 290 290 289 289 289 289 289 289 288 287 286
313 312 313 313 313 313 313 313 312 312 313 313 311 307 306 304 302 302 301 300 300 300 299 297 295 294 292 291 291 291 290 290 290 289 289 288 287 285 284 283 283 282 282 283
317 314 315 315 315 314 313 313 312 313 312 311 311 309 306 303 302 301 300 299 298 297 296 294 293 292 292 291 290 290 289 289 287 287 286 285 284 284 283 282 281 281 281 280
314 314 313 313 314 313 313 313 313 313 313 311 308 308 305 303 300 299 299 298 296 295 294 293 292 291 290 290 289 288 287 286 285 284 284 283 282 282 281 281 281 280 279 279
314 313 311 312 312 312 312 312 311 311 310 309 307 304 303 301 298 298 297 295 295 293 292 291 291 290 289 288 287 286 285 284 283 282 282 281 281 280 280 279 279 278 278 278
311 311 311 313 312 310 310 310 310 309 307 305 303 303 301 299 297 296 294 293 293 292 291 290 289 288 287 286 285 284 283 283 282 281 281 280 280 279 279 278 278 278 277 277
308 309 309 309 309 308 308 307 309 305 303 302 301 300 299 298 296 294 293 292 292 290 289 288 287 286 285 284 284 283 282 281 280 280 279 279 278 278 278 277 277 277 276 276
308 305 305 304 303 302 302 303 305 303 301 300 299 298 296 295 294 293 293 291 290 289 287 286 286 285 284 283 282 281 280 280 279 278 278 278 277 277 277 276 276 275 275 275
310 312 308 306 304 303 302 303 302 301 300 299 297 296 295 294 294 293 291 289 288 287 286 285 284 283 282 281 280 280 279 278 278 277 277 277 276 276 276 275 274 274 274 274
310 309 309 305 304 303 301 300 300 299 298 296 295 294 294 293 291 290 288 287 286 285 284 284 282 281 281 280 279 278 278 277 277 277 276 276 275 275 274 274 273 273 273 273
306 305 304 302 300 301 299 297 297 297 295 294 294 293 291 290 288 287 287 286 284 283 283 282 281 280 279 278 278 277 277 276 276 276 275 275 274 274 273 273 272 272 272 271
301 300 299 298 297 297 297 296 296 295 294 294 292 291 289 287 287 286 285 284 283 282 281 280 279 278 278 277 276 276 276 275 275 275 274 274 273 272 272 272 271 271 271 271
298 298 297 296 296 295 294 294 294 293 292 290 288 287 287 286 285 283 282 281 281 280 279 278 278 277 276 276 275 275 274 274 274 273 273 272 271 271 271 271 270 270 270 270
295 295 295 294 294 293 292 292 291 289 287 286 286 286 285 284 282 281 280 280 279 278 278 277 276 275 274 274 274 273 273 273 272 272 271 271 270 270 270 270 269 269 269 269
293 293 292 292 291 290 288 286 286 286 285 284 283 282 282 281 281 280 279 278 278 277 276 275 274 274 273 273 273 272 272 271 271 270 270 270 269 269 269 269 269 269 269 269
290 290 289 289 289 287 286 284 284 284 284 284 283 283 283 282 281 280 279 277 276 275 275 274 273 273 272 272 271 271 270 270 269 269 269 269 269 269 268 268 268 268 268 268
288 287 286 286 285 284 284 284 284 283 282 282 281 281 280 279 279 277 277 276 275 274 273 273 272 271 271 270 269 269 269 268 268 268 268 268 268 268 267 267 267 268 267 267
284 284 284 283 282 282 282 282 281 281 280 280 279 278 278 277 276 275 275 274 273 272 272 271 270 270 269 268 268 268 267 267 267 267 267 267 267 267 267 267 267 268 267 267

GFSNGP_850_thetae_036.txt.gz
Theta_e
318 318 317 318 318 320 320 321 322 322 321 321 320 321 320 318 317 317 317 319 322 326 326 326 326 325 325 327 327 327 326 324 324 323 322 321 319 319 318 316 315 310 305 300
319 318 318 318 318 319 320 320 321 321 321 320 320 320 319 318 317 319 320 321 322 323 323 323 323 322 324 323 322 320 319 318 318 318 318 317 315 313 311 309 306 303 300 298
320 320 319 321 320 319 320 320 321 321 321 320 320 320 319 318 319 318 318 318 317 317 317 317 317 317 316 315 315 315 315 316 315 314 312 311 309 307 306 304 301 299 298 301
321 319 327 320 320 320 320 321 321 320 320 320 319 318 316 317 317 314 314 313 313 313 313 313 313 313 314 314 314 313 313 312 310 310 309 307 306 305 303 301 300 300 299 300
327 322 321 319 318 319 321 321 321 321 320 319 316 314 313 312 313 311 310 310 311 311 312 312 312 312 312 311 310 309 308 307 306 306 305 304 303 302 301 300 298 298 298 298
319 323 326 321 320 318 319 322 320 320 320 318 315 320 319 309 308 308 308 308 310 311 311 311 310 309 309 307 307 306 305 303 302 301 300 300 299 298 298 298 299 298 298 297
324 326 322 320 318 316 321 323 320 319 318 317 318 319 314 308 307 307 307 308 308 309 310 309 308 307 307 306 305 302 301 300 300 299 299 299 299 299 298 296 295 292 290 290
323 327 327 317 315 321 322 320 319 318 318 317 315 312 309 308 307 306 306 307 307 308 306 305 304 305 305 304 302 302 301 301 301 300 298 294 292 291 291 291 290 291 291 291
323 323 322 316 319 318 319 319 317 317 317 317 311 310 308 307 306 305 304 304 303 304 304 302 302 302 303 302 301 300 298 295 293 291 291 290 290 290 292 291 291 290 289 289
320 321 320 318 317 316 315 316 316 316 316 314 311 309 307 306 305 304 303 303 302 302 301 301 299 300 300 298 295 293 292 291 290 290 290 290 289 288 287 286 285 286 286 287
321 321 316 317 317 317 315 314 313 314 315 313 310 308 307 305 303 303 302 301 300 299 299 299 298 298 295 293 292 291 291 290 290 289 288 286 286 285 284 283 283 282 282 282
325 321 320 321 320 317 315 314 313 314 313 312 309 308 305 304 302 301 300 298 298 298 298 297 296 294 292 292 291 290 289 288 287 286 286 285 284 284 283 282 281 281 280 279
319 315 316 315 314 316 315 314 313 312 312 310 308 306 304 303 301 299 298 297 296 296 297 296 293 292 291 290 289 288 287 286 286 285 284 283 282 282 282 282 280 280 279 279
314 314 314 313 314 312 312 312 311 310 309 308 306 304 302 301 298 298 297 296 295 296 294 292 291 290 289 288 287 286 286 285 284 283 282 281 281 280 280 279 279 280 278 277
312 311 312 312 310 309 309 308 309 307 306 304 303 302 300 298 298 296 294 295 295 293 292 290 290 289 287 287 286 285 284 283 282 282 281 281 280 279 279 278 278 278 277 277
309 309 310 311 308 307 305 304 305 303 302 301 300 299 298 297 295 292 291 292 292 289 287 289 288 286 285 284 284 283 283 281 281 280 280 279 279 278 278 277 277 277 276 275
307 306 306 306 307 305 303 303 302 300 299 299 297 296 295 292 290 289 290 290 291 289 288 286 286 285 284 283 282 281 281 280 280 279 279 278 278 277 277 276 275 275 275 274
308 310 310 310 307 302 301 302 301 299 297 296 295 294 293 291 290 291 291 290 289 287 285 284 284 283 283 282 281 280 279 279 279 278 278 277 277 276 276 275 275 275 274 273
306 307 305 301 301 303 299 298 297 296 296 294 293 292 293 294 293 291 290 288 286 285 284 283 282 282 281 280 279 279 278 278 277 277 276 276 276 275 275 274 274 274 273 272
299 300 301 301 300 300 298 297 296 294 294 294 294 294 293 291 291 290 287 285 284 284 283 282 281 280 280 279 278 278 277 277 276 276 275 275 275 274 274 274 273 273 271 270
296 297 297 297 296 295 295 295 295 294 293 293 293 292 291 289 288 286 285 284 283 282 281 280 279 279 278 277 277 276 276 275 275 275 274 274 273 273 273 272 272 271 270 269
293 293 293 294 294 293 293 294 293 292 292 291 291 290 289 287 285 285 284 282 281 280 279 279 278 277 277 276 275 275 274 274 273 273 272 272 272 272 271 271 270 270 269 269
292 292 292 293 292 291 291 291 291 290 289 288 287 286 286 285 283 282 281 280 280 279 278 278 278 277 276 275 274 273 273 272 272 271 271 271 271 270 270 269 269 269 268 268
290 290 290 289 290 290 288 287 287 286 285 285 284 283 283 282 281 281 281 280 280 278 278 277 276 275 274 273 272 272 271 270 270 269 269 270 269 268 267 268 268 268 268 268
287 287 287 287 286 284 284 284 284 284 284 283 283 282 281 281 280 280 279 278 277 276 276 275 274 273 272 271 271 270 269 268 267 268 267 267 267 266 267 267 267 267 267 268
285 284 284 283 282 282 282 282 281 281 280 280 280 280 279 279 278 278 277 276 275 274 273 272 272 271 270 269 269 268 268 267 266 265 266 267 265 266 266 267 267 267 267 267
283 282 282 282 281 281 281 281 280 279 279 279 277 278 277 277 276 275 275 274 273 272 271 271 270 269 269 268 267 266 265 265 265 266 266 266 265 266 266 266 266 267 267 267

GFSNGP_850_thetae_039.txt.gz
Theta_e
320 319 320 320 321 321 321 321 323 322 322 323 323 322 321 322 321 319 320 320 321 326 329 330 330 330 330 329 329 327 326 326 324 322 321 320 321 320 318 317 315 311 308 305
320 319 319 319 319 318 319 319 320 320 320 321 321 320 320 319 320 320 321 322 323 326 328 328 328 328 327 325 324 323 322 321 319 317 316 314 313 312 312 313 312 310 307 305
322 319 320 322 319 319 319 319 320 321 321 321 321 321 320 320 320 321 322 322 324 325 326 326 325 323 321 319 318 317 315 314 313 311 310 311 312 311 309 308 306 304 302 301
324 324 326 320 320 320 320 320 320 320 321 321 321 320 320 320 320 321 321 321 321 320 320 319 318 317 316 315 314 313 312 311 310 309 309 309 308 307 305 303 301 299 298 298
326 325 321 319 319 321 321 320 320 321 321 321 320 320 319 319 320 319 318 318 317 316 315 314 314 313 312 311 310 309 308 307 307 306 305 305 304 303 302 301 300 300 299 299
324 324 325 320 320 320 321 323 320 320 321 321 320 322 321 317 317 316 315 314 313 313 312 312 311 310 309 308 307 306 306 305 304 304 304 303 301 301 301 300 299 299 298 298
326 325 322 320 320 320 323 321 321 320 321 320 320 321 319 315 314 313 312 312 311 311 311 310 309 309 308 307 306 305 304 304 303 303 301 300 300 300 299 298 297 296 295 295
325 327 328 321 321 321 322 321 322 322 321 319 319 319 316 314 313 312 311 310 310 310 309 309 308 307 306 305 304 304 303 302 301 300 298 298 297 295 294 295 295 295 294 294
323 324 322 320 321 320 320 320 322 322 320 319 320 317 314 313 312 311 310 310 309 309 308 307 307 306 305 303 302 302 300 298 296 295 295 295 295 294 294 293 292 292 290 290
322 322 322 322 321 320 321 321 321 321 320 319 319 316 314 312 311 310 310 309 308 307 306 305 304 303 302 301 299 298 297 296 295 294 293 292 291 290 290 290 288 287 288 288
320 319 319 320 321 321 321 320 319 318 318 319 318 315 313 312 311 310 309 308 307 305 304 302 300 299 298 297 296 295 294 293 292 290 290 289 288 288 286 286 284 283 283 282
323 319 322 321 321 320 321 320 318 317 317 318 316 314 313 311 310 309 308 306 304 303 301 299 298 297 296 295 294 293 291 290 289 288 288 287 287 287 285 284 283 282 282 281
320 319 319 320 318 317 318 319 318 317 317 316 315 313 312 310 309 308 305 304 302 301 298 297 295 293 292 292 291 290 289 288 287 286 286 286 285 285 285 284 283 282 281 280
318 316 316 316 317 315 316 317 316 316 316 316 314 312 310 308 306 305 303 302 300 297 295 292 291 289 289 289 289 288 287 286 286 285 285 284 283 283 283 282 282 282 281 279
315 313 313 313 312 312 312 312 313 314 314 313 312 310 308 306 304 303 301 299 295 292 290 288 288 287 286 286 285 285 285 285 284 283 282 282 281 281 280 280 280 280 280 279
312 311 311 311 312 310 310 309 311 310 309 309 308 307 305 303 302 299 295 293 290 288 286 287 286 286 285 284 284 284 284 283 282 281 281 280 280 279 279 279 279 279 279 278
311 314 312 310 309 307 307 308 308 306 306 305 305 303 301 299 294 291 289 289 288 287 287 288 288 287 285 283 282 282 282 282 281 280 279 279 278 278 278 277 277 277 277 276
308 308 307 309 307 306 305 304 303 303 302 301 299 299 296 293 290 289 289 288 289 289 289 289 287 283 283 283 283 282 281 280 279 279 278 278 278 277 276 276 276 275 275 274
302 302 302 302 303 302 300 300 300 299 298 297 296 293 291 291 290 290 289 290 290 289 286 284 283 284 283 281 281 280 280 279 278 277 277 277 276 275 275 274 274 273 273 273
297 298 298 296 297 297 296 295 295 295 294 294 293 291 290 289 289 288 287 286 286 286 284 284 283 281 281 280 279 279 278 277 276 276 275 275 274 273 273 273 272 272 272 272
292 292 292 292 290 290 291 291 291 290 290 291 291 290 288 286 287 287 287 286 284 284 283 281 280 280 279 278 277 277 276 276 275 274 273 273 272 272 272 271 271 271 270 270
289 289 289 289 290 289 290 290 291 291 290 290 289 289 287 285 285 285 284 284 283 282 280 280 279 278 279 279 278 276 275 274 273 272 272 271 271 270 270 270 269 269 268 268
288 289 289 289 289 288 289 289 288 288 287 287 286 286 286 284 282 282 282 281 280 279 278 279 278 278 278 277 276 274 273 271 271 271 270 270 270 269 269 268 268 267 267 267
287 287 286 287 287 287 286 285 285 285 285 285 284 283 282 282 282 281 281 280 279 277 277 277 276 276 275 273 271 271 270 270 270 270 270 269 268 268 267 267 266 266 266 265
284 284 284 283 283 283 283 282 282 282 282 282 281 281 281 281 280 278 278 278 277 275 274 275 274 273 272 270 270 269 269 269 269 268 267 267 267 267 266 266 265 265 264 266
281 281 281 281 280 281 281 281 280 280 280 280 278 278 277 277 276 276 276 275 274 273 272 271 270 270 269 269 269 268 268 268 267 267 266 266 266 265 265 265 264 263 263 264
279 279 279 278 278 277 277 277 277 277 276 277 277 276 275 275 274 273 273 272 272 271 271 270 269 269 268 267 267 267 267 266 266 266 265 264 264 264 264 263 263 263 265 266

GFSNGP_850_thetae_042.txt.gz
Theta_e
322 321 321 323 321 321 323 325 325 325 322 322 322 323 321 322 322 322 321 320 321 324 329 331 332 332 331 332 332 332 330 330 329 328 327 325 323 322 320 319 318 317 315 314
323 322 320 320 321 322 321 321 321 321 322 322 321 321 321 321 320 321 320 320 320 322 329 331 332 332 332 331 331 330 327 328 327 326 322 320 319 319 318 317 316 314 313 311
324 323 321 321 320 320 321 321 320 320 322 321 321 322 322 321 320 320 320 322 323 324 329 330 330 330 328 326 325 325 323 322 321 319 316 315 314 314 313 312 311 309 308 307
324 323 323 320 320 320 320 319 320 320 320 320 321 320 321 321 320 321 322 323 324 327 328 328 327 325 323 321 320 319 318 316 314 313 312 312 311 310 308 306 305 303 302 300
325 323 321 319 320 320 320 320 321 320 320 321 320 320 322 320 320 321 322 322 323 324 324 323 321 319 317 316 314 313 312 311 310 309 308 307 307 306 305 304 302 300 299 299
326 324 324 322 320 319 320 320 321 321 321 321 322 324 323 320 320 321 321 321 320 319 318 317 316 315 313 312 311 309 308 308 307 306 306 305 303 302 301 300 300 300 299 298
325 325 324 321 320 319 321 323 322 321 321 321 323 322 321 320 320 319 319 318 317 315 314 313 312 311 310 309 308 307 307 306 305 305 304 303 302 300 300 299 298 297 295 296
324 325 325 321 321 321 323 321 322 321 321 321 320 320 320 319 318 317 316 315 314 313 312 311 310 310 308 307 306 306 305 305 304 303 301 300 299 298 297 296 296 294 294 294
322 324 317 318 320 321 320 321 322 321 322 322 321 320 319 317 316 315 314 313 312 312 311 310 309 308 307 306 305 305 305 304 301 298 298 297 296 295 295 295 295 295 293 291
317 316 316 317 320 322 321 322 322 321 322 322 321 320 317 316 315 314 313 312 311 311 310 309 308 307 306 305 305 303 300 298 296 295 295 295 294 293 293 292 291 290 288 288
319 318 317 317 318 319 321 322 321 321 320 320 320 320 317 315 314 313 312 311 311 309 308 307 307 305 304 302 300 298 297 296 295 294 292 291 290 290 290 289 287 285 285 284
320 318 321 320 320 319 320 320 319 321 320 319 319 320 317 315 313 312 311 310 309 308 307 305 303 302 300 299 297 296 294 293 291 290 290 289 289 288 287 285 284 284 283 282
319 318 319 318 317 318 318 318 317 320 319 318 319 318 316 314 313 312 311 309 308 305 303 301 299 298 297 296 295 293 292 291 290 289 288 288 287 286 286 286 285 283 283 282
316 318 317 318 317 316 315 315 318 318 318 317 318 316 315 313 312 311 309 307 304 302 300 298 296 294 293 292 291 291 289 287 287 287 287 286 285 285 284 285 284 283 282 281
313 314 313 313 313 313 313 313 314 315 316 316 316 315 313 311 309 307 306 304 301 298 295 292 291 289 289 289 288 286 286 286 287 286 285 284 283 282 282 282 281 281 281 280
311 313 313 313 313 312 311 311 311 313 313 314 313 311 310 307 306 304 302 299 295 291 288 286 286 285 286 286 285 285 285 285 285 284 282 282 281 281 281 280 280 279 280 279
309 310 309 309 311 308 308 308 309 309 309 309 308 307 306 304 301 297 294 292 289 288 287 286 284 283 284 288 289 289 287 283 281 281 281 281 280 279 279 278 278 278 278 277
303 304 304 305 307 306 304 304 305 305 305 304 304 303 300 297 294 292 290 289 289 287 287 288 288 289 288 287 286 284 282 282 281 280 280 279 279 278 277 277 277 276 276 276
298 298 298 301 300 301 300 300 300 299 299 300 300 298 295 293 292 291 289 289 288 288 286 286 286 286 285 284 281 281 281 280 280 279 278 278 277 277 276 276 275 275 274 274
291 292 293 293 293 294 293 293 294 293 293 294 292 292 290 288 288 287 286 286 286 286 285 285 284 284 283 282 282 282 280 278 278 277 276 276 275 275 275 274 274 273 273 273
288 289 289 290 289 290 290 290 290 289 288 289 289 287 286 285 286 286 286 286 283 284 284 284 283 282 281 279 279 279 279 279 278 277 275 274 274 273 273 273 272 272 271 271
287 288 288 288 288 287 287 288 288 288 288 287 286 285 285 284 285 285 284 284 282 282 281 281 280 279 279 279 278 277 277 275 274 274 273 273 272 272 271 271 271 270 270 269
287 287 287 287 287 287 287 287 287 286 285 285 284 284 284 282 282 282 282 280 279 278 278 278 278 278 277 276 275 274 273 273 272 272 271 271 271 270 270 269 269 268 268 267
285 285 284 284 285 285 284 283 284 283 283 283 282 282 281 282 281 280 279 278 278 277 277 276 276 275 274 273 272 272 271 271 271 270 270 270 269 269 269 268 268 267 267 266
283 283 283 283 283 282 282 282 282 281 281 280 280 280 280 279 279 277 277 277 276 275 274 273 273 272 271 271 271 270 270 269 269 269 268 268 267 267 267 267 266 266 265 265
281 280 280 280 280 280 279 280 280 280 280 278 278 277 277 276 276 275 274 274 273 272 272 271 271 270 270 269 269 268 268 268 268 268 267 267 266 266 265 265 265 265 264 263
278 278 277 277 277 276 276 276 276 276 276 277 276 275 275 274 274 273 273 272 272 271 271 270 270 269 269 268 267 267 267 267 266 266 265 265 264 264 264 264 263 263 263 264

GFSNGP_850_thetae_045.txt.gz
Theta_e
318 320 320 322 322 320 320 320 324 323 322 320 319 319 319 321 321 321 321 320 322 325 326 326 327 329 332 334 334 333 333 332 331 330 330 327 326 325 325 323 322 320 320 319
319 319 319 319 320 320 320 321 323 323 322 321 321 320 320 321 321 322 320 319 319 322 328 329 330 331 331 331 332 332 331 330 330 330 328 326 327 326 324 322 320 319 317 316
319 319 320 319 319 319 320 320 320 320 319 317 318 320 320 321 321 320 320 320 319 320 327 330 331 331 331 331 331 331 331 331 329 328 327 326 324 322 320 318 317 316 314 312
316 318 323 319 318 318 318 318 317 317 317 316 317 319 320 321 320 320 319 320 321 321 328 330 331 330 331 330 329 328 328 327 326 325 324 323 319 317 315 314 313 311 309 307
320 320 319 320 318 317 318 318 318 317 316 316 318 318 320 320 320 320 320 321 322 324 328 330 330 330 329 327 325 323 322 322 321 319 318 315 314 313 312 310 307 305 303 302
317 320 321 319 318 318 318 318 318 318 318 317 318 317 316 320 320 320 321 322 323 326 328 328 327 327 326 323 321 319 317 316 314 313 312 310 309 308 306 303 302 300 299 298
316 320 317 319 318 318 319 317 318 320 320 321 317 318 320 320 319 320 320 321 323 324 325 324 323 322 319 317 315 313 312 311 309 308 307 307 306 304 303 301 300 299 298 297
318 320 321 317 320 318 317 319 320 319 320 319 320 320 320 319 319 320 321 321 321 321 320 319 318 316 315 313 311 310 308 307 307 306 305 304 303 301 300 300 299 295 295 295
318 318 317 316 317 316 316 316 320 321 320 321 320 320 319 319 319 319 319 318 318 317 316 314 314 313 311 309 308 308 307 306 305 304 303 301 299 298 297 297 296 294 294 294
316 316 315 315 314 317 317 318 317 319 321 320 321 320 319 318 318 318 317 316 315 314 313 311 311 310 309 308 307 306 306 305 303 301 299 297 296 295 296 295 295 295 294 292
315 315 315 314 314 314 315 318 317 319 319 320 319 320 319 318 317 316 314 314 313 312 311 310 309 308 307 306 306 305 304 300 297 297 296 296 295 295 295 294 293 292 291 289
313 317 318 318 317 314 316 317 317 318 318 320 319 319 319 317 316 314 313 312 312 310 310 308 308 306 306 305 303 301 298 296 295 295 294 294 293 292 291 290 288 286 285 284
316 317 317 316 316 317 316 317 316 317 318 318 318 319 318 317 315 313 312 311 310 309 308 306 304 303 301 300 299 297 296 295 293 292 291 290 289 288 287 286 286 285 283 283
312 315 316 314 313 314 314 314 314 314 316 316 317 318 318 316 313 312 311 310 308 307 305 303 301 299 297 296 296 294 293 292 290 289 288 288 287 286 286 285 285 284 283 282
310 312 312 313 313 312 312 312 312 312 314 315 316 317 316 313 311 309 308 307 305 302 299 298 296 293 292 293 293 292 290 289 288 287 286 286 285 285 284 283 283 282 282 281
307 308 309 310 309 309 309 310 310 310 311 312 312 312 311 310 308 305 304 301 302 296 292 293 292 288 289 289 289 288 287 287 287 287 286 285 285 284 282 281 281 280 280 280
302 301 304 304 304 305 304 304 305 306 306 306 303 301 303 304 301 297 294 293 292 289 289 290 290 288 287 286 286 288 289 288 288 286 284 283 282 282 282 281 280 279 278 278
297 296 297 298 299 301 300 301 301 302 303 300 299 298 299 298 294 291 290 290 291 290 289 288 288 287 287 287 287 286 286 285 284 283 282 282 281 280 279 278 278 277 277 277
293 294 294 294 294 295 295 294 295 294 295 295 297 295 291 290 289 289 290 290 288 287 284 285 285 286 286 286 286 285 284 283 282 281 280 280 279 278 277 277 276 276 275 274
289 290 291 291 291 291 290 290 291 291 291 292 291 291 289 288 288 287 287 286 285 284 284 284 284 284 284 283 283 282 281 280 279 278 277 277 276 276 275 275 274 274 273 273
287 288 288 288 287 288 288 288 289 288 287 288 288 287 286 285 286 286 287 285 282 282 283 282 282 281 281 280 279 278 278 277 277 276 275 274 274 273 273 273 272 272 272 271
286 286 286 287 287 286 286 286 286 286 285 285 285 285 285 284 284 284 282 282 280 280 280 279 279 278 278 277 276 276 275 274 273 273 272 272 272 271 271 271 270 270 270 269
284 285 285 285 285 284 285 285 284 284 284 283 283 283 283 281 281 281 279 278 278 277 277 277 276 275 275 274 273 273 272 272 271 271 271 270 270 270 269 269 269 268 268 267
283 283 283 282 282 282 282 281 282 282 282 281 281 280 280 280 279 278 277 277 276 275 275 274 273 272 272 272 271 271 271 270 270 269 269 269 269 268 268 268 267 267 266 266
282 282 282 282 281 281 281 280 279 279 279 279 278 278 277 277 277 275 275 274 274 273 273 272 271 271 270 270 269 269 269 268 268 268 267 267 267 266 266 265 265 265 265 265
280 279 279 279 279 279 279 279 278 278 277 276 276 275 275 275 274 274 273 273 272 272 271 271 270 269 269 268 268 267 267 267 266 266 266 266 265 265 264 264 264 264 264 263
278 277 277 276 276 276 275 275 276 275 275 274 274 273 273 273 272 272 271 271 270 270 270 269 268 268 267 267 267 266 266 265 265 265 264 264 264 263 263 263 263 263 263 263

GFSNGP_850_thetae_048.txt.gz
Theta_e
317 317 318 318 319 319 319 318 319 318 320 320 319 318 319 322 320 320 320 320 324 325 325 326 326 325 326 327 326 327 326 326 327 325 327 328 327 327 326 327 325 323 322 322
317 317 317 318 319 319 319 319 318 318 320 319 320 319 317 319 320 321 321 321 320 325 325 327 327 326 325 325 328 328 326 327 327 327 328 328 327 326 325 326 324 323 321 320
317 317 318 317 318 318 318 318 320 321 319 319 318 317 317 319 320 321 320 320 320 320 323 325 325 325 326 326 328 332 331 330 329 329 328 327 326 325 325 323 322 321 320 319
316 315 321 318 317 317 317 317 316 316 317 316 316 319 318 319 321 321 320 321 319 319 319 324 327 328 329 329 331 330 330 330 329 329 328 327 324 323 322 321 319 318 316 314
317 319 318 317 318 317 317 318 316 316 315 315 316 315 316 318 319 319 321 320 320 319 320 325 328 330 330 330 331 330 330 329 327 327 324 324 322 322 319 316 314 312 311 310
315 317 321 317 316 317 316 316 316 315 315 316 317 314 313 319 319 320 320 319 320 320 321 327 330 331 331 330 329 328 328 327 326 325 323 323 321 319 314 311 311 310 308 305
314 316 317 316 316 317 319 316 316 318 318 316 315 316 319 319 320 320 320 320 319 320 322 326 329 330 329 328 326 325 324 323 322 320 319 317 314 312 311 310 307 304 302 299
314 317 317 317 316 318 317 316 317 318 318 318 320 320 320 319 320 320 320 320 321 321 325 328 328 328 327 325 323 321 320 319 317 314 311 310 309 308 306 304 301 300 299 298
316 314 316 316 314 316 317 317 318 318 318 318 319 319 319 320 319 320 320 320 321 323 325 325 324 324 323 320 318 316 314 312 310 308 307 306 305 304 302 301 299 299 298 297
315 313 315 314 315 314 314 316 317 317 317 318 318 320 319 319 320 320 320 320 320 321 320 319 318 317 317 316 313 312 310 308 306 305 304 302 301 300 300 299 299 296 295 295
314 313 314 314 314 314 314 313 314 317 315 316 319 319 319 319 319 319 319 319 319 318 317 315 314 313 312 311 310 308 307 305 304 303 301 300 299 299 298 298 296 295 294 294
312 312 312 314 315 315 314 314 313 314 316 315 317 318 318 319 318 318 317 316 315 314 313 312 310 309 308 308 307 306 305 303 302 301 299 298 296 296 295 294 293 292 291 290
309 309 313 313 313 314 314 315 315 313 312 313 316 317 318 318 316 315 314 313 312 311 310 309 308 307 306 305 305 304 303 299 297 296 295 294 293 292 292 290 289 287 285 284
307 310 311 311 310 310 311 311 312 313 314 314 315 316 318 315 313 313 312 311 310 309 308 306 305 304 302 302 302 300 298 295 294 292 290 290 289 288 287 287 286 285 285 283
305 306 306 307 310 309 309 310 311 310 309 311 312 312 312 311 309 307 305 306 306 306 303 301 301 298 296 296 296 295 293 290 290 289 289 288 288 290 288 285 286 285 283 282
302 304 304 303 302 304 304 305 305 302 303 303 305 305 304 302 299 298 295 295 300 296 293 294 292 290 291 292 293 293 292 291 289 288 287 288 286 286 285 284 282 281 281 281
299 298 300 298 295 297 297 297 296 296 297 298 295 294 295 295 294 291 290 290 289 288 289 291 290 290 291 291 290 289 288 287 287 287 287 286 285 283 282 282 281 281 280 279
293 293 294 295 292 295 295 295 295 294 293 291 292 293 293 293 289 288 289 289 290 289 287 287 287 287 287 287 287 287 286 286 285 284 283 282 282 281 281 280 279 278 277 277
291 290 290 291 291 292 291 291 291 291 291 291 292 290 289 289 289 288 288 288 287 287 283 284 285 286 286 285 285 284 283 283 282 281 280 280 279 278 277 276 276 276 275 275
287 288 288 288 288 288 287 287 288 289 288 289 289 288 287 286 286 286 287 284 282 282 282 282 283 283 283 282 282 281 281 280 279 278 277 276 276 275 274 274 274 273 273 273
285 285 285 285 284 284 285 285 286 286 286 287 286 285 284 284 284 284 284 281 279 280 281 281 281 281 280 280 279 279 278 277 276 275 274 274 273 273 272 272 271 271 271 270
284 284 284 284 284 284 284 284 284 284 284 283 283 282 282 281 281 281 279 279 278 278 279 279 278 277 277 277 276 275 274 273 273 272 272 271 271 271 270 270 270 269 269 268
284 284 284 284 284 283 283 283 283 283 282 282 282 282 281 280 279 279 278 277 277 276 276 275 274 273 273 273 273 272 271 271 271 270 270 269 269 269 268 268 267 267 267 266
283 282 282 282 282 282 281 280 281 280 280 279 279 278 278 278 277 276 276 275 274 274 274 272 272 271 271 271 270 270 269 269 268 268 268 267 267 267 266 266 266 265 265 265
282 281 281 281 281 279 279 278 278 278 278 277 277 276 276 275 275 274 274 273 272 272 271 271 270 270 269 269 268 268 268 267 267 266 266 266 266 265 265 264 264 264 264 263
280 279 279 278 278 278 278 278 277 276 276 275 274 274 274 273 273 272 272 271 271 270 270 269 269 268 268 267 267 267 266 266 266 266 265 265 265 264 264 264 264 263 263 263
277 277 276 276 275 275 275 275 275 274 273 273 273 272 272 271 271 271 270 270 269 269 268 267 267 267 267 267 267 267 266 266 265 265 265 265 265 265 264 264 264 264 264 264

GFSNGP_850_thetae_051.txt.gz
Theta_e
319 319 318 315 316 317 317 317 318 317 318 317 317 316 316 321 321 319 319 319 321 323 323 323 323 323 324 325 325 325 325 324 324 324 324 324 325 325 325 325 326 325 323 319
318 318 317 316 316 316 316 317 316 317 316 316 317 318 317 319 320 320 320 320 320 321 323 323 322 323 323 323 325 325 325 325 325 325 325 326 326 326 325 326 327 327 325 319
317 316 317 316 316 316 316 317 318 318 316 316 317 317 317 320 321 320 320 321 320 320 321 324 323 323 322 322 324 325 325 325 326 326 326 326 326 326 325 326 326 328 326 325
315 313 321 316 312 315 316 317 316 317 317 316 316 318 318 319 319 319 320 320 321 320 320 321 323 324 324 325 326 327 327 327 328 327 327 327 327 327 327 326 325 324 324 323
311 315 314 312 316 314 317 317 315 315 315 314 317 314 314 317 317 318 319 319 320 320 320 320 323 324 326 326 327 328 328 329 329 328 329 328 326 326 326 324 323 322 322 320
313 315 314 309 312 314 316 319 316 317 316 315 314 313 313 318 318 318 319 319 319 320 319 319 321 325 326 327 328 328 329 329 328 328 326 326 326 325 323 323 322 320 317 314
312 315 313 312 313 316 318 316 316 317 317 316 314 314 319 320 319 319 319 319 319 319 319 319 320 324 327 329 329 329 330 328 325 325 326 325 324 323 321 319 315 312 310 309
314 314 313 315 315 315 314 313 314 317 317 316 317 319 320 320 319 319 319 319 319 319 319 320 321 325 327 329 329 328 326 325 324 324 322 321 319 317 314 312 310 307 306 304
311 312 311 316 313 313 313 313 314 316 316 317 318 319 318 318 318 319 320 320 319 318 318 320 324 328 329 327 326 325 323 321 319 317 315 313 312 310 308 306 306 304 301 300
312 310 312 313 314 316 314 314 314 314 316 315 318 319 319 318 319 319 319 321 321 322 323 324 326 326 325 325 323 320 318 315 312 310 308 305 304 303 301 300 299 299 299 298
310 311 312 313 312 314 314 315 315 315 314 315 315 317 318 318 317 318 319 320 321 321 323 324 323 322 320 319 317 315 312 310 307 305 304 303 301 300 300 300 299 298 298 297
310 310 309 311 310 312 314 314 315 314 313 313 314 315 315 316 317 316 317 318 318 319 319 318 316 315 314 313 312 311 308 306 305 304 303 302 300 299 297 297 297 295 294 294
307 306 307 309 309 310 309 310 311 311 311 313 312 313 315 315 316 313 313 316 313 313 314 314 311 310 309 308 308 307 306 305 303 302 301 300 299 298 297 293 291 291 290 290
304 307 309 306 303 308 307 310 309 308 307 308 309 311 311 313 313 316 314 311 309 308 307 305 305 306 305 305 304 304 303 302 300 299 296 293 292 290 291 291 289 287 286 285
302 303 302 301 303 303 304 305 307 306 304 305 304 304 304 303 301 298 298 301 303 302 301 301 301 298 298 300 300 298 293 291 291 290 290 290 290 290 289 288 287 286 286 285
299 300 302 299 296 297 297 298 298 295 295 296 297 295 294 293 292 292 292 293 297 295 292 294 292 290 291 292 293 293 293 291 291 290 289 289 288 287 287 286 285 284 283 282
296 296 296 294 292 291 289 289 289 289 290 292 291 290 291 291 291 290 289 289 289 289 289 290 290 290 291 291 291 290 289 288 287 287 286 286 285 284 283 282 281 281 280 279
291 290 290 290 289 289 288 288 287 288 287 287 288 289 289 290 288 288 288 288 289 288 287 286 287 288 287 287 287 287 286 285 285 284 283 282 282 281 280 279 279 278 277 277
288 288 287 287 287 287 286 286 286 286 287 287 288 287 286 286 285 285 285 286 285 284 282 283 284 285 285 284 284 284 283 283 282 281 280 279 279 278 277 276 276 275 275 274
284 285 285 285 286 286 285 285 286 286 286 286 286 285 283 283 283 283 284 282 280 279 280 281 282 282 282 281 282 281 281 280 279 278 278 277 276 275 274 274 273 273 272 272
284 285 285 286 285 285 285 286 286 285 285 285 285 284 283 282 282 282 282 281 278 279 280 280 280 280 279 279 279 278 277 276 275 274 274 273 273 272 272 271 271 270 270 270
284 284 284 284 284 284 284 284 283 283 283 283 282 281 281 280 280 280 278 278 277 277 278 277 276 275 275 274 274 274 273 273 272 272 271 271 270 270 269 269 268 268 267 267
283 283 283 283 283 282 282 282 282 282 282 281 280 280 279 278 277 278 277 275 275 274 274 273 272 272 272 272 271 271 271 270 270 269 269 268 268 267 267 267 266 266 266 265
282 282 281 281 281 281 281 280 280 280 279 278 278 277 277 277 276 275 274 273 273 272 272 271 270 270 270 269 269 269 269 268 268 268 267 267 266 266 266 266 265 265 264 264
281 281 281 281 281 279 278 278 278 277 277 276 275 275 274 274 274 272 272 272 271 270 270 269 269 268 269 269 268 268 268 268 267 267 267 266 266 266 265 265 265 265 265 265
280 280 280 279 279 278 278 277 277 275 274 274 273 273 272 272 272 271 271 270 270 269 268 268 268 268 268 268 268 268 268 267 267 267 266 266 266 266 266 265 265 265 265 265
277 277 276 276 275 275 275 274 274 273 272 272 272 271 271 270 270 270 269 269 268 268 268 268 268 268 268 268 267 267 267 267 266 266 266 266 265 265 265 265 265 265 265 265

GFSNGP_850_thetae_054.txt.gz
Theta_e
319 318 318 316 316 315 315 314 316 316 316 316 317 315 315 320 320 320 320 320 319 321 322 322 323 322 323 322 323 323 324 324 324 324 323 321 320 319 319 319 319 319 321 322
316 317 313 315 316 314 314 314 315 315 315 313 315 317 316 318 318 318 320 320 320 319 321 322 321 321 321 321 321 321 322 322 323 323 323 322 322 322 321 321 321 322 322 324
314 313 314 315 313 311 313 314 315 316 315 314 314 315 315 317 318 319 320 321 320 321 321 320 320 321 322 320 321 322 322 322 323 323 324 323 323 323 323 323 323 323 324 325
313 311 314 312 311 314 313 313 310 311 315 314 315 318 319 318 317 317 319 320 319 319 321 320 320 320 322 322 321 322 323 323 324 324 325 324 324 324 324 324 324 324 326 323
309 311 312 311 314 315 313 312 309 313 317 316 315 314 313 319 318 317 317 317 317 318 319 320 320 320 319 323 322 323 323 324 324 325 326 326 325 325 325 326 323 323 324 323
311 310 310 307 309 313 313 312 314 314 315 315 314 311 313 317 316 318 318 318 318 318 318 318 320 320 319 322 324 324 324 325 327 328 327 326 325 325 323 322 321 321 322 321
312 313 309 309 312 314 315 308 312 314 314 315 314 313 317 317 318 318 319 319 318 318 318 318 318 318 318 322 325 326 327 328 328 328 325 325 323 322 321 321 321 320 319 317
312 314 310 312 314 314 312 313 313 313 312 313 315 315 317 317 317 318 318 318 318 318 318 317 318 319 321 324 326 327 327 327 327 326 322 322 322 321 320 318 317 315 313 311
309 309 309 315 314 313 313 313 313 312 313 314 314 315 316 316 317 318 318 319 320 320 320 321 323 325 326 327 327 327 327 327 325 323 322 321 318 316 314 312 311 311 309 308
309 309 309 311 312 311 311 312 313 314 313 314 315 315 314 315 316 317 317 318 320 322 322 322 323 324 325 326 326 325 325 323 322 320 318 314 311 310 310 309 308 308 306 304
307 309 309 311 310 308 310 312 313 314 314 313 313 313 311 314 314 315 316 317 318 320 320 321 321 323 324 323 322 321 319 318 316 313 310 308 306 303 302 302 301 301 300 299
305 308 308 308 308 307 307 307 308 307 310 308 309 310 311 312 313 313 314 315 315 318 318 317 316 317 316 316 315 315 314 311 309 307 306 304 303 302 300 299 299 298 297 296
306 305 306 306 305 305 303 309 304 305 306 306 306 304 307 307 307 308 309 310 312 310 313 313 312 311 310 309 309 309 309 306 304 303 302 301 299 298 298 296 295 295 294 293
302 304 307 304 301 302 303 299 300 298 300 299 301 299 300 301 301 301 300 296 300 304 303 302 304 307 304 304 304 305 304 303 300 298 297 296 295 294 293 293 292 291 290 289
300 300 301 300 300 301 301 297 298 294 295 297 296 296 296 296 295 292 292 293 294 294 293 295 296 295 298 296 299 297 296 295 294 293 292 291 290 290 290 289 288 287 286 284
296 298 298 297 295 294 299 295 291 289 288 287 289 290 290 290 290 290 291 291 294 289 289 290 290 290 291 293 293 292 291 291 291 290 289 288 288 287 286 285 284 283 282 281
294 295 294 292 289 288 290 288 287 286 285 286 285 286 288 289 288 288 288 288 289 288 288 288 288 289 289 290 290 289 288 288 287 287 286 285 284 284 283 282 281 280 280 279
289 289 288 289 287 285 285 285 285 285 285 285 286 287 288 287 285 285 285 286 287 286 285 285 286 286 286 286 287 286 286 285 284 284 283 283 282 281 280 280 279 278 277 277
286 286 285 285 284 284 284 284 284 285 285 285 287 286 285 284 284 284 284 285 284 283 281 283 284 285 285 284 284 284 284 283 282 282 281 280 279 278 277 277 276 275 274 274
284 284 284 284 284 284 284 284 285 284 284 285 284 284 283 282 283 283 283 282 279 279 280 281 282 282 281 281 281 281 280 280 279 278 277 276 275 274 273 273 272 272 271 271
283 284 284 284 283 283 283 284 284 283 283 284 284 282 281 280 281 281 281 279 277 278 279 279 279 277 276 275 275 275 275 275 274 273 273 272 272 271 271 270 270 270 269 269
283 283 283 283 283 283 283 283 283 283 282 281 280 280 280 279 279 279 277 276 274 274 275 275 274 273 273 273 272 272 272 271 271 271 270 270 270 269 269 269 268 268 268 267
283 283 283 283 282 281 282 282 281 281 280 280 279 279 279 277 276 276 275 272 272 272 272 272 271 271 271 271 270 270 270 270 270 269 269 269 268 268 268 268 267 267 267 267
282 282 281 281 281 281 280 279 279 278 278 277 276 276 275 275 274 273 272 271 271 271 271 270 270 270 270 270 269 269 269 269 269 268 268 268 267 267 267 267 267 267 266 266
281 281 280 280 280 278 278 277 277 276 275 275 274 273 273 272 273 271 271 270 270 269 269 269 269 269 269 269 269 268 268 268 268 268 267 267 267 267 267 266 266 266 266 266
280 280 279 279 278 277 276 276 275 274 273 273 272 271 271 271 270 270 270 269 269 268 268 268 268 268 268 268 268 268 268 267 267 267 267 267 266 266 266 266 266 266 266 266
278 277 276 276 275 274 274 273 273 272 271 271 271 270 269 269 269 269 269 268 268 268 268 268 268 268 268 268 268 267 267 267 267 266 266 266 266 266 266 266 266 266 265 265

GFSNGP_850_thetae_057.txt.gz
Theta_e
319 318 318 316 317 317 317 316 317 317 317 317 318 318 319 318 317 318 319 320 320 320 320 320 321 322 322 322 322 323 323 322 322 323 323 320 317 316 316 316 316 316 316 316
315 315 315 314 315 312 315 315 315 316 317 315 315 315 315 317 317 317 318 319 319 320 320 319 320 321 321 322 321 322 322 322 323 323 322 323 323 321 319 318 317 317 317 318
313 314 313 313 315 313 315 314 315 315 312 312 318 317 315 315 317 318 320 319 319 319 319 321 320 320 320 320 321 321 320 321 321 322 322 322 322 322 321 321 320 320 319 319
314 312 311 311 313 313 316 315 312 311 310 317 317 316 317 316 314 314 316 316 317 318 318 318 319 320 320 320 320 321 321 321 321 321 321 322 322 322 322 322 322 322 322 323
314 314 312 311 311 315 315 312 313 316 317 316 316 315 318 317 316 316 317 316 316 317 318 318 317 319 319 319 319 320 322 321 321 322 322 323 323 323 323 323 323 323 323 323
312 314 313 310 309 313 312 311 314 315 315 315 316 320 318 315 317 316 316 317 318 318 318 318 317 317 318 318 318 319 321 322 322 323 323 324 324 324 324 324 323 323 322 321
313 314 313 310 310 312 312 311 312 313 314 313 315 316 315 314 314 315 316 317 317 318 318 318 317 317 317 317 318 319 321 322 322 323 324 324 325 324 323 323 322 321 321 320
313 313 313 309 314 315 313 312 312 312 312 312 313 313 314 314 314 314 315 317 319 319 318 318 318 318 318 319 321 323 324 325 325 325 324 324 323 321 321 320 319 318 316 313
312 312 309 312 312 309 309 310 311 312 313 313 314 314 314 312 313 313 313 316 318 319 321 322 323 323 323 323 323 324 325 325 325 323 323 321 320 319 318 316 313 311 308 307
310 310 310 310 309 308 308 306 306 308 311 312 309 308 309 309 312 313 312 312 315 316 321 321 321 322 323 323 323 323 324 322 321 319 319 318 315 313 311 309 308 307 306 305
310 309 309 309 306 307 307 306 305 305 306 308 308 306 304 307 308 313 311 310 311 314 313 318 319 319 318 318 319 320 319 317 316 316 314 312 309 306 305 304 304 304 302 301
310 308 307 307 305 307 306 305 304 300 298 306 307 306 303 303 300 303 306 306 304 305 309 307 313 314 315 313 312 316 315 312 311 309 306 304 304 302 300 300 299 298 298 297
305 304 304 305 304 304 303 301 302 302 302 299 305 303 303 296 299 296 298 299 296 298 301 303 303 302 306 310 307 309 309 305 304 304 302 300 298 298 298 294 296 295 294 293
301 303 304 303 300 300 299 298 298 297 298 298 292 295 294 295 295 293 293 293 295 296 296 296 296 299 298 299 300 302 301 299 299 297 296 294 294 293 293 293 292 290 288 288
297 298 299 300 300 298 298 296 294 292 291 292 290 289 290 292 291 289 289 291 292 293 292 293 294 293 294 294 294 294 294 293 292 292 292 292 291 290 290 289 288 287 285 285
293 295 297 297 295 294 293 291 289 286 287 287 287 286 287 287 287 288 289 290 292 289 289 290 290 290 291 293 292 292 291 291 291 289 289 289 288 287 286 286 285 284 283 282
292 293 292 290 290 288 286 286 285 284 285 285 284 284 284 285 285 285 285 286 286 286 286 287 286 287 288 289 289 288 288 288 288 287 287 286 285 284 283 282 282 281 280 279
288 288 288 288 286 286 284 283 282 283 283 283 284 285 285 284 282 282 282 283 285 285 284 284 285 285 286 286 286 286 286 285 285 284 283 283 282 281 280 279 278 278 277 276
285 285 285 285 284 283 282 282 282 282 283 284 285 284 283 282 282 282 282 283 282 282 280 282 283 283 284 283 284 283 283 283 282 281 280 279 279 278 277 276 276 275 274 273
283 283 283 283 282 282 282 282 283 284 283 283 283 282 282 281 281 281 281 280 278 277 278 279 279 278 278 277 278 278 277 277 276 275 275 274 274 273 273 272 272 272 271 271
282 283 283 283 282 282 282 282 282 282 281 282 282 281 280 279 279 279 279 278 274 275 275 275 275 274 274 274 274 274 274 273 273 273 272 272 271 271 270 270 270 269 269 269
282 283 282 282 282 282 282 282 282 281 281 280 279 279 278 277 277 276 275 274 273 273 273 273 272 272 272 272 272 272 272 271 271 270 270 270 269 269 269 269 269 268 268 268
282 282 282 282 282 281 280 280 280 279 279 278 278 277 277 275 274 274 274 272 271 271 271 271 271 271 271 271 271 270 270 270 270 269 269 269 269 268 268 268 268 267 267 267
281 281 281 280 280 280 279 278 278 277 277 276 275 274 274 274 273 272 271 270 270 270 270 270 270 270 270 270 270 269 269 269 269 268 268 268 268 267 267 267 267 267 266 266
281 280 280 279 279 278 277 276 276 275 275 274 274 273 272 272 271 270 270 269 269 269 269 269 269 269 269 269 269 268 268 268 268 267 267 267 267 267 266 266 266 266 266 266
280 279 279 278 277 276 276 275 274 273 272 272 272 271 270 270 270 269 269 269 269 269 269 269 268 268 268 268 267 267 267 267 267 266 266 266 266 266 266 266 266 266 266 266
277 276 276 275 274 274 273 273 272 272 271 271 270 270 269 269 269 268 268 268 268 268 268 267 267 267 267 267 267 266 266 266 266 266 266 266 266 266 266 266 266 266 266 266

GFSNGP_850_thetae_060.txt.gz
Theta_e
318 317 318 318 319 318 320 319 320 319 318 318 319 318 319 319 319 319 320 321 321 320 321 323 324 325 325 324 324 323 322 321 321 321 319 317 317 316 316 316 316 315 316 317
314 315 316 315 315 316 316 319 319 319 319 318 316 317 319 319 320 319 318 319 320 321 320 320 322 323 324 322 322 322 322 322 322 321 321 321 320 318 317 316 316 316 316 316
312 314 314 313 314 315 318 318 319 320 319 315 314 318 320 320 319 318 318 318 317 317 318 318 320 320 323 324 324 322 322 321 322 322 322 321 321 320 320 320 319 319 318 318
313 315 312 313 316 316 318 318 317 315 314 316 318 318 319 318 319 319 319 319 319 319 317 317 318 318 319 322 324 321 321 322 322 322 322 322 321 321 321 321 321 320 321 321
314 313 311 311 313 314 317 315 315 315 315 316 316 318 319 318 317 317 317 318 318 318 318 317 317 317 317 318 321 324 324 323 324 323 322 322 321 321 321 321 321 321 321 321
315 313 313 311 313 314 313 312 314 313 314 315 315 320 320 317 316 315 316 317 318 319 320 320 318 317 316 317 320 322 323 324 324 324 323 323 322 322 322 321 322 323 324 323
313 314 313 312 312 314 312 315 314 313 313 314 316 316 316 316 315 314 314 315 316 318 318 318 317 318 318 320 320 321 322 323 323 323 323 323 323 323 323 323 323 324 324 323
312 313 313 312 313 313 315 314 314 314 315 315 314 315 314 313 313 312 312 312 313 315 312 318 319 318 321 320 318 319 319 320 321 322 322 322 323 324 324 322 322 321 321 319
312 312 314 314 313 312 312 312 310 310 310 310 312 311 310 311 308 308 310 306 308 312 316 315 315 318 318 318 321 322 322 323 323 323 323 323 321 321 320 319 319 319 318 314
312 311 312 313 312 310 309 308 307 306 305 305 306 306 307 305 304 303 311 308 301 312 316 314 309 310 315 317 318 318 320 320 319 318 317 317 316 314 314 314 311 308 308 305
310 310 312 310 308 307 308 307 305 304 302 301 301 302 302 301 301 304 306 306 301 304 313 311 307 306 310 312 315 317 316 315 314 313 314 313 309 305 304 304 305 304 302 301
310 310 310 310 306 304 306 304 301 300 299 298 296 297 297 298 294 301 309 302 299 300 303 307 302 303 304 306 309 313 311 309 308 306 304 305 304 301 298 299 299 299 298 298
309 306 307 306 303 301 301 299 297 298 295 294 293 293 292 293 295 294 298 298 295 294 296 299 299 300 299 298 303 301 303 301 300 299 298 297 298 297 296 293 295 294 294 294
302 302 306 303 303 298 297 295 295 294 292 291 290 288 287 287 289 291 289 290 291 292 294 295 296 294 293 295 297 299 299 295 295 292 292 292 291 291 291 291 290 287 287 287
296 297 298 298 297 296 295 293 291 290 288 288 288 287 287 288 286 284 285 288 288 290 290 291 291 291 292 293 294 294 293 293 293 292 291 290 289 289 288 287 286 284 283 283
295 296 296 296 295 292 291 289 288 286 285 284 284 284 284 284 284 285 286 287 288 286 286 287 288 288 289 289 290 290 289 290 290 289 289 288 287 286 284 283 282 280 279 279
294 295 292 290 289 288 286 285 284 284 283 282 281 281 281 283 284 285 284 285 286 285 285 285 285 286 287 287 287 287 287 287 287 287 286 284 283 282 281 279 278 278 279 278
288 287 288 288 286 285 283 283 282 282 282 283 283 284 284 284 283 282 283 283 283 284 283 283 284 285 285 285 285 285 284 283 283 283 282 281 280 278 277 276 276 275 274 276
286 285 284 283 283 282 281 281 282 282 282 283 284 283 282 282 282 282 282 282 282 282 280 281 281 281 281 281 282 282 281 280 279 278 278 277 276 275 274 274 273 273 272 272
282 281 281 281 282 283 283 282 282 283 282 283 282 281 281 280 280 280 280 279 276 275 275 276 276 276 275 275 276 276 276 275 275 274 274 272 272 272 271 271 271 271 270 270
281 282 282 282 281 281 281 282 282 282 281 281 282 281 280 279 278 276 275 275 273 273 274 274 274 274 273 273 273 273 273 273 272 271 271 271 270 270 269 269 269 269 268 268
281 282 282 282 282 281 281 281 281 281 280 280 278 278 277 276 275 275 274 273 272 272 273 273 273 272 272 272 272 272 272 272 271 271 270 270 269 268 268 268 268 267 267 266
281 282 282 282 281 280 280 280 279 279 278 277 276 275 274 273 272 272 271 271 270 271 271 271 270 270 270 271 270 270 270 270 269 269 269 269 268 268 267 268 267 267 267 267
281 281 280 280 279 277 276 275 276 276 276 275 274 273 272 271 270 270 270 270 270 270 270 270 270 270 270 270 270 270 269 269 269 268 268 268 268 268 268 267 267 267 267 267
280 279 278 277 277 276 275 275 274 274 273 272 271 271 270 270 270 269 269 269 269 269 269 270 270 270 269 269 269 269 268 268 268 268 268 267 267 267 267 267 267 267 267 267
279 278 277 276 275 275 274 274 273 272 272 271 270 270 270 270 269 269 269 269 269 269 269 269 269 269 268 268 268 268 267 267 267 267 267 267 266 266 266 266 266 266 266 266
277 276 275 274 274 273 273 272 272 271 270 270 269 269 269 269 269 269 269 268 268 268 268 268 268 268 268 267 267 267 267 266 266 266 266 266 266 266 266 266 266 265 266 266

GFSNGP_850_thetae_063.txt.gz
Theta_e
317 318 319 317 317 317 319 319 321 321 321 320 320 320 319 319 320 321 321 321 322 322 323 324 326 328 328 328 328 327 325 324 324 324 324 324 324 323 322 322 322 322 322 322
318 317 318 319 319 319 319 319 320 320 320 320 320 317 318 320 320 321 321 321 321 321 321 321 321 323 326 328 328 328 327 325 325 324 324 324 323 323 323 322 321 322 322 321
317 314 314 317 317 317 317 318 319 319 320 319 317 317 318 319 320 321 320 320 320 320 321 321 320 320 322 324 327 327 327 327 326 325 324 324 323 324 323 322 322 321 321 321
315 314 317 315 315 317 317 319 318 318 317 317 317 317 317 320 319 319 318 319 320 321 321 322 321 320 320 320 323 327 327 327 326 326 325 324 324 323 323 323 322 322 321 321
315 314 313 312 312 316 318 318 317 316 315 315 315 315 318 319 318 317 317 317 318 319 321 322 322 322 321 319 319 322 326 327 327 326 325 325 324 324 323 323 322 322 322 322
314 314 314 313 314 315 317 318 315 315 315 315 315 317 320 318 317 316 316 316 316 317 317 313 315 316 320 322 320 320 321 324 326 327 326 325 324 324 324 323 323 323 323 323
313 314 313 313 313 314 315 317 315 315 316 315 316 317 316 316 316 315 314 313 312 314 315 317 316 317 320 323 323 323 323 323 324 326 326 326 325 325 324 324 323 323 322 322
312 312 313 313 312 315 316 315 314 315 314 315 315 316 315 314 312 310 309 308 308 309 309 316 316 313 314 314 317 320 321 322 323 324 325 325 325 324 324 323 323 323 322 321
310 311 315 315 315 314 314 313 312 312 311 311 312 311 312 311 309 307 306 305 303 304 311 311 314 311 310 309 310 315 319 319 320 322 323 323 323 323 323 322 320 320 318 318
312 314 314 314 313 312 312 311 310 309 309 308 308 309 308 308 306 304 303 302 299 303 309 308 306 309 308 307 305 307 310 312 313 314 315 316 315 315 315 311 310 311 308 306
312 313 314 312 311 310 310 309 307 307 305 304 303 304 302 302 299 297 297 296 295 294 299 303 302 300 303 308 300 302 304 304 306 307 306 306 304 303 305 304 303 303 301 300
312 313 313 310 309 307 308 306 303 303 302 301 299 299 297 295 291 291 292 291 292 290 296 297 298 299 299 302 301 297 297 298 298 298 301 300 299 297 296 296 295 296 295 295
311 309 309 308 306 304 304 301 299 298 297 298 296 294 292 289 288 288 289 289 287 290 293 294 295 295 295 295 298 297 297 294 296 295 293 293 295 294 291 290 291 290 290 290
303 304 307 302 299 298 299 297 295 294 291 291 290 289 288 287 287 288 287 287 287 289 289 289 290 290 291 293 292 292 294 294 293 292 292 291 290 291 291 289 288 286 285 285
299 299 300 297 298 297 296 294 293 291 289 287 286 286 285 284 283 285 285 286 286 288 287 288 288 288 288 289 290 290 290 289 288 288 288 287 286 286 285 285 284 283 283 283
297 297 296 294 292 292 291 290 289 286 285 285 284 284 283 282 282 283 285 286 287 285 285 286 287 287 287 288 288 288 288 288 288 288 286 285 284 283 282 282 281 281 280 280
296 296 295 293 292 290 289 287 287 286 285 284 283 282 282 281 281 283 283 283 284 284 284 284 284 286 286 286 286 285 285 285 285 284 283 282 281 281 280 280 279 278 278 277
289 289 290 290 288 287 286 285 284 283 281 281 282 282 282 282 280 280 281 281 282 282 282 281 282 283 284 283 282 281 281 280 280 279 278 278 278 278 277 277 276 276 275 275
287 287 286 285 285 284 282 281 281 281 282 282 282 282 281 281 281 281 281 281 280 278 277 276 276 276 277 277 277 277 277 277 277 276 276 276 275 275 275 275 275 274 274 273
284 283 282 281 281 280 280 281 281 282 281 281 281 281 280 280 279 278 277 277 275 273 274 275 275 275 275 275 275 275 274 275 274 274 273 273 273 273 273 272 272 272 272 271
281 281 280 281 281 281 282 282 282 282 281 281 282 281 279 277 277 276 275 274 273 272 273 273 274 273 273 273 273 272 272 272 272 272 272 272 272 271 271 271 271 270 270 270
281 281 281 281 282 281 280 281 281 280 279 278 277 276 276 276 275 274 273 272 271 272 272 273 273 272 272 271 271 271 271 271 270 270 270 270 270 270 269 269 269 269 268 268
281 281 281 281 281 280 280 279 279 278 277 276 275 275 274 274 273 273 272 272 271 272 272 272 272 272 272 271 270 270 270 270 269 269 269 269 268 268 268 267 267 267 266 266
281 280 280 279 279 278 277 276 275 276 275 275 274 274 274 273 272 271 271 271 271 271 271 271 271 271 271 269 269 268 268 268 268 268 268 267 267 266 266 266 265 265 265 265
280 279 279 279 279 278 276 275 275 274 274 273 273 272 271 271 271 270 270 270 270 270 269 270 270 270 268 268 268 268 267 267 268 267 266 266 266 265 265 265 264 265 266 265
279 279 278 278 278 278 277 277 277 276 275 274 272 271 270 270 270 270 269 270 269 269 268 268 269 269 267 267 267 267 267 266 266 266 266 265 265 264 264 264 265 265 265 265
277 277 277 276 276 275 275 275 275 274 273 273 272 271 270 270 269 269 269 268 268 268 267 267 267 268 268 268 266 265 265 265 265 266 266 265 264 263 264 265 266 266 266 266

GFSNGP_850_thetae_069.txt.gz
Theta_e
315 313 316 318 317 318 320 320 325 324 324 323 323 322 320 320 320 320 321 321 321 322 322 322 322 324 325 326 326 327 327 326 326 325 325 325 324 321 322 324 323 323 322 322
313 316 316 319 319 317 319 321 322 322 322 320 322 320 320 319 318 318 319 318 319 319 318 318 319 321 322 322 322 325 326 326 327 326 325 325 325 325 324 322 322 323 323 323
314 315 315 317 318 318 319 320 320 322 322 321 320 320 318 317 317 317 317 317 318 318 316 315 317 318 319 319 321 321 322 326 326 325 326 326 325 325 326 325 324 323 324 323
312 314 318 317 315 318 318 319 318 320 320 320 320 319 317 316 314 313 313 314 314 314 313 314 315 316 318 319 320 320 321 321 324 326 326 325 325 325 325 326 326 326 325 325
311 315 316 315 314 314 319 318 317 318 317 320 319 317 314 312 311 310 310 309 310 310 310 312 313 314 316 317 319 320 321 321 321 320 322 324 325 326 326 326 326 326 325 326
310 312 318 315 314 314 317 319 315 317 318 319 317 317 313 310 308 308 307 306 307 307 308 309 310 310 312 313 316 317 317 318 319 319 320 321 323 327 326 326 326 326 326 326
308 311 313 313 314 314 318 318 315 315 315 314 314 312 309 307 305 304 303 302 301 304 305 305 306 307 307 307 309 309 311 312 314 316 317 319 321 323 325 325 326 326 325 325
309 310 311 313 314 317 315 313 313 312 313 311 311 308 306 304 303 301 299 299 299 300 300 300 301 303 303 303 302 303 305 307 310 310 312 314 316 319 320 321 322 324 323 321
309 308 313 314 314 314 313 311 309 309 309 308 306 304 304 301 299 298 298 298 298 298 298 299 300 301 300 300 300 301 302 303 303 303 305 309 313 315 313 309 309 308 308 308
311 308 313 312 311 309 308 307 306 305 305 305 302 301 298 296 295 295 296 297 297 298 298 298 298 299 298 298 298 298 298 298 298 299 299 300 303 306 303 299 297 295 295 291
312 312 310 310 306 306 305 305 303 302 302 301 301 298 297 295 293 292 292 292 293 294 294 294 294 296 296 296 295 296 296 296 295 295 294 294 295 294 296 298 295 293 292 292
311 307 305 305 303 303 303 302 301 300 299 297 298 296 294 293 291 291 290 289 291 290 290 289 290 291 292 294 294 293 293 292 292 292 291 290 288 288 288 288 290 290 289 290
306 303 301 300 301 300 299 298 297 296 295 293 292 292 291 288 288 288 288 288 288 287 287 288 288 288 288 289 291 291 290 289 288 289 288 289 288 288 287 286 288 287 286 286
301 302 299 299 298 297 297 296 295 292 290 289 289 288 287 285 285 285 286 286 286 286 287 287 287 287 287 288 289 289 288 288 286 285 286 286 286 285 284 285 284 283 283 283
298 298 297 295 295 294 293 292 290 288 287 286 286 286 285 285 284 284 284 285 285 286 286 286 286 286 285 286 287 287 287 286 286 285 284 284 284 284 283 282 281 280 281 282
296 295 294 293 292 291 290 288 287 285 284 284 284 284 284 284 284 284 284 284 286 285 284 284 285 284 284 285 285 285 285 284 284 284 283 282 282 282 281 280 279 279 278 277
294 293 293 290 289 288 287 287 286 285 284 283 282 281 282 282 282 282 282 282 283 283 282 281 280 280 281 281 282 281 281 281 281 281 281 279 278 278 278 277 277 276 275 275
290 290 290 288 287 286 285 285 284 283 283 282 282 282 282 282 281 280 280 280 280 279 278 276 276 277 277 278 278 278 278 278 278 277 277 277 277 276 275 275 274 274 273 272
287 287 287 286 285 284 283 283 282 282 282 282 282 281 280 280 279 278 277 277 276 276 276 275 275 276 276 276 276 276 276 276 275 275 275 274 274 274 274 273 272 272 271 271
283 283 283 283 282 282 281 281 281 281 281 282 282 281 281 279 277 277 276 276 276 275 274 274 275 275 274 274 275 275 275 274 274 273 273 272 272 272 272 271 271 271 270 270
281 282 282 282 281 281 281 281 281 281 280 279 278 277 276 276 276 275 276 275 274 273 273 273 274 274 274 273 273 273 273 273 273 272 272 271 271 271 270 270 270 269 269 269
281 281 281 281 281 281 280 280 281 280 279 279 278 277 277 276 276 275 274 273 273 272 272 272 273 273 273 272 272 272 272 272 271 270 271 270 270 270 269 269 269 269 268 268
281 281 281 281 281 280 280 279 279 278 277 276 276 275 275 274 274 274 273 272 272 272 271 271 271 271 272 271 271 271 271 270 270 270 269 269 268 268 268 267 267 267 267 266
281 281 280 280 279 279 279 277 277 276 276 275 275 275 274 274 274 273 272 271 271 272 271 270 270 271 271 271 270 269 270 270 269 268 268 267 267 267 267 266 266 266 266 267
281 280 280 279 279 278 277 277 277 276 276 275 275 274 273 273 273 271 271 270 270 270 271 270 269 269 270 269 270 269 268 268 268 268 267 267 267 266 266 266 266 266 266 266
281 280 280 279 279 278 278 278 277 276 276 275 274 273 272 271 271 271 270 270 270 269 269 269 269 269 269 269 268 268 267 267 267 267 267 267 267 266 266 266 266 266 266 266
279 278 278 278 278 278 278 278 277 276 275 274 274 273 272 271 270 270 270 269 269 268 268 268 268 268 268 267 267 267 266 266 266 266 266 265 265 265 265 265 265 265 265 265

GFSNGP_850_thetae_072.txt.gz
Theta_e
314 313 313 317 318 318 320 319 322 321 323 323 323 323 321 318 318 320 318 315 314 315 318 320 322 323 324 325 325 325 324 324 324 324 324 324 323 322 321 320 320 320 320 320
312 314 314 314 316 318 317 319 319 320 321 320 322 321 319 318 317 317 315 314 312 312 314 316 317 319 320 322 322 324 325 324 324 324 324 324 324 325 324 323 322 320 319 319
311 311 312 316 316 318 318 318 319 322 321 320 321 320 318 315 315 313 311 308 308 309 311 312 313 315 317 318 319 320 321 323 324 323 323 324 324 324 324 324 324 324 323 321
310 311 315 314 310 313 317 319 319 319 319 320 315 313 312 310 310 309 310 309 307 307 308 309 310 311 313 314 316 317 318 319 319 320 321 321 323 323 323 324 325 325 325 324
308 310 309 309 314 316 319 319 317 318 320 316 312 310 307 306 306 306 305 305 305 306 307 309 309 309 310 310 311 312 313 314 315 317 318 319 320 322 323 324 324 325 325 325
308 309 311 314 313 315 316 320 316 319 318 316 314 312 307 302 303 301 301 302 303 305 307 308 309 309 310 309 309 309 308 309 310 311 311 314 316 318 320 322 323 324 324 324
307 307 308 310 313 313 318 318 316 318 318 314 311 307 301 300 300 301 301 302 303 304 304 303 304 305 307 307 308 305 306 306 307 308 308 308 310 312 314 318 319 322 324 322
305 307 308 308 314 313 315 313 313 312 309 305 303 301 299 298 298 300 301 299 297 297 297 298 300 302 302 303 302 302 303 303 304 304 304 305 307 307 309 312 312 311 310 312
306 306 310 312 313 313 310 308 308 307 306 304 301 297 296 296 296 294 295 295 296 297 297 298 298 300 300 300 301 301 301 301 301 301 300 302 304 303 302 301 302 301 300 299
310 308 309 308 306 305 305 304 305 304 305 303 298 296 296 296 294 293 293 293 293 294 294 293 293 294 293 294 295 297 298 298 298 299 299 299 298 297 296 296 295 295 295 294
310 308 305 304 303 303 301 302 301 300 300 300 300 295 295 292 291 290 289 289 290 290 290 289 291 292 293 292 293 294 294 294 294 294 294 294 293 292 291 290 291 291 290 290
308 302 304 303 302 300 300 299 298 298 297 295 296 294 292 290 289 289 288 288 289 289 289 289 289 290 290 291 292 292 292 291 290 290 290 290 289 288 288 288 287 287 287 288
301 301 300 298 299 297 297 296 296 297 294 294 290 291 290 287 286 287 287 288 288 288 288 289 290 289 289 289 291 291 291 289 289 289 289 289 288 288 287 286 287 286 286 286
299 300 297 297 295 295 296 295 295 292 291 290 288 287 287 287 286 286 286 285 286 287 288 288 289 289 288 288 288 289 289 288 288 287 287 286 286 286 286 286 285 284 284 284
296 298 295 294 294 294 293 293 292 289 288 287 286 286 286 286 285 284 284 285 286 287 287 287 287 287 287 287 287 287 287 286 286 285 285 284 284 284 283 283 283 282 281 282
295 295 294 294 291 291 291 289 287 285 286 285 285 284 284 284 284 284 284 284 286 286 284 285 285 284 284 284 285 285 284 284 284 284 283 282 282 282 281 281 280 280 280 279
294 292 292 290 290 288 287 286 285 284 283 283 282 282 283 283 283 283 283 283 283 283 282 282 280 279 279 280 280 281 281 281 281 281 281 280 279 279 278 278 277 276 275 275
291 292 291 290 288 287 286 285 284 283 283 282 282 282 283 283 283 283 283 282 281 279 278 278 277 277 277 277 277 278 277 277 277 277 277 277 277 276 275 275 274 274 273 273
288 288 287 287 286 286 284 283 283 283 282 282 282 282 282 282 281 280 278 277 276 276 276 275 276 276 276 276 276 276 276 275 275 275 275 274 274 274 273 273 272 272 272 272
284 285 284 283 282 282 282 281 282 281 281 281 282 282 280 278 276 276 275 276 275 275 274 274 274 275 274 274 274 274 274 274 274 273 273 273 272 272 272 271 271 270 270 270
282 282 282 281 281 281 281 281 281 280 279 279 278 277 276 276 275 274 274 274 273 273 273 273 274 274 274 273 273 273 273 272 272 272 271 271 271 270 270 270 269 269 269 268
281 281 281 281 281 280 280 280 280 279 278 278 277 276 276 275 275 275 273 273 272 272 272 272 272 273 273 272 272 272 272 271 271 271 271 270 270 269 269 269 268 268 268 268
281 281 281 281 281 280 279 279 278 277 277 276 276 275 275 275 274 273 272 272 272 271 271 271 271 271 271 271 271 271 271 270 270 269 269 269 269 268 268 268 267 267 267 267
281 281 280 280 279 278 278 277 276 276 275 275 275 275 274 274 274 273 272 271 271 271 271 270 270 270 270 270 270 270 270 269 269 268 268 267 268 268 267 266 266 266 266 266
280 280 280 279 278 278 277 277 277 276 276 275 275 274 273 272 272 271 271 270 270 270 270 269 269 269 269 269 269 268 268 268 267 267 267 267 266 266 266 266 266 266 266 266
280 280 280 279 279 278 277 277 277 276 275 275 274 274 273 272 271 270 270 270 269 269 269 269 269 268 268 268 267 267 267 266 266 266 266 266 265 265 266 266 266 265 265 265
279 279 278 278 278 277 277 277 276 276 275 275 274 273 272 271 271 270 270 269 269 268 268 268 268 267 267 267 267 266 266 266 266 266 266 266 265 265 265 265 265 265 265 265

GFSNGP_850_thetae_075.txt.gz
Theta_e
312 312 312 313 313 316 317 318 321 319 320 321 320 319 318 318 315 311 309 309 312 314 316 318 320 322 323 324 324 325 325 324 323 323 324 323 323 323 322 321 320 319 319 319
310 311 311 310 310 312 314 318 318 318 318 319 320 320 319 317 313 309 306 305 306 310 313 315 316 319 319 320 320 322 323 324 323 322 322 324 323 323 323 323 322 321 321 320
308 307 308 310 313 309 313 317 317 318 318 320 321 320 317 314 310 306 303 302 301 305 309 313 313 312 315 316 317 318 319 320 322 322 321 322 322 322 322 322 323 323 323 322
307 307 308 309 305 314 314 316 316 318 319 319 313 309 309 309 306 303 302 305 305 304 306 308 308 309 310 311 313 315 317 317 317 317 318 319 320 321 321 321 321 321 321 323
305 307 305 305 313 315 317 320 318 318 317 310 306 305 303 303 302 301 300 301 304 305 305 307 307 307 308 308 309 309 309 310 311 312 314 315 316 317 317 318 320 321 321 321
306 307 306 309 308 312 313 319 316 318 314 311 312 311 305 300 299 299 300 301 303 303 303 305 305 305 306 307 307 308 308 307 308 308 309 309 310 311 312 313 314 315 318 319
305 305 305 306 306 310 312 318 315 317 313 313 311 307 300 298 297 298 298 299 300 300 300 300 301 302 304 304 304 303 304 305 306 306 307 306 306 308 308 309 309 308 308 308
304 307 306 309 312 312 311 312 310 310 307 301 299 298 296 295 295 296 298 298 298 299 299 301 302 302 302 303 300 301 301 302 303 303 302 302 304 305 306 305 304 302 301 302
305 305 307 306 308 308 310 308 305 304 302 300 298 296 298 295 295 294 295 296 296 296 296 296 296 298 298 297 298 299 300 301 301 301 301 301 301 301 301 300 300 299 298 297
308 307 305 304 302 302 303 305 304 306 307 305 299 294 292 292 291 291 291 291 292 292 292 292 293 294 294 295 296 297 298 297 297 298 297 297 297 295 295 294 294 293 293 292
307 306 303 301 300 299 299 297 300 299 298 297 297 294 293 290 289 289 290 291 291 291 290 291 291 291 292 293 293 294 294 294 294 294 294 293 293 292 291 290 290 290 289 289
306 304 304 300 298 300 300 297 294 296 294 293 294 292 289 287 288 288 288 288 289 289 289 289 289 290 290 291 291 291 291 291 290 290 290 290 290 289 288 288 288 288 288 288
299 297 297 295 295 295 296 295 294 294 292 290 288 288 287 286 286 286 287 287 287 287 287 287 288 288 287 288 289 290 289 289 288 288 288 288 288 288 288 287 287 288 287 286
297 299 296 295 291 292 293 292 291 289 286 285 285 286 287 287 285 286 286 285 285 285 286 286 286 286 285 286 286 287 287 287 287 286 286 286 286 285 285 285 285 285 284 284
295 296 294 292 292 290 291 291 290 287 286 286 286 286 285 285 285 284 284 284 284 285 285 285 285 285 285 285 286 286 286 285 285 285 285 284 284 283 283 283 282 282 281 281
294 294 294 294 292 291 290 289 288 284 285 284 284 284 284 283 283 283 283 283 285 285 284 283 283 282 282 282 282 283 283 283 283 283 282 282 282 281 281 280 280 279 278 277
293 292 292 291 289 288 288 286 286 284 283 283 283 283 283 283 283 283 283 282 282 282 280 279 278 278 278 278 279 279 279 280 280 280 279 279 278 278 277 276 276 275 275 274
291 291 291 290 289 288 286 285 285 284 284 283 282 282 282 282 283 282 281 279 277 277 277 277 277 277 277 277 277 277 277 277 277 277 277 276 276 275 275 275 274 274 273 272
288 288 288 287 286 286 285 284 284 283 283 282 282 282 282 282 280 278 277 276 276 276 276 276 276 276 276 276 276 276 276 276 276 275 275 274 274 274 273 273 273 272 272 271
286 286 285 285 284 284 284 283 283 283 282 282 282 282 281 278 276 276 275 275 276 275 275 274 275 275 275 275 275 275 274 274 274 274 273 273 273 272 272 272 271 271 270 270
284 284 284 283 282 282 282 282 282 282 281 281 279 278 277 277 277 276 275 274 274 274 273 273 273 274 274 274 273 273 273 273 273 272 272 272 271 271 270 270 269 269 269 268
281 282 282 282 282 282 282 282 282 281 280 279 278 277 276 276 275 275 274 273 273 273 272 272 272 272 272 272 272 272 272 271 271 271 271 270 270 269 269 269 268 268 268 268
281 281 281 281 281 281 279 279 278 278 277 276 276 276 275 275 274 273 272 272 272 271 271 271 271 271 271 271 271 271 270 270 270 270 270 269 269 268 268 268 267 267 267 267
281 281 280 279 279 278 277 276 276 275 275 275 275 274 274 273 273 273 272 271 271 271 270 270 269 269 270 270 270 269 269 269 269 269 269 268 268 267 267 267 267 267 266 266
280 280 279 278 278 277 277 277 277 276 276 275 275 274 273 272 272 271 271 270 270 270 269 269 269 268 269 269 268 268 268 268 267 267 267 267 267 267 266 266 266 266 265 265
280 280 280 279 279 278 277 277 277 276 276 275 274 274 273 272 271 270 270 270 269 269 268 268 268 268 268 268 267 267 267 267 267 267 266 266 266 266 265 265 265 265 264 264
280 279 279 278 277 277 276 276 276 276 275 274 273 273 272 271 271 270 270 269 269 269 268 268 268 267 267 267 267 267 267 267 266 266 266 265 265 265 265 265 265 264 264 264

GFSNGP_850_thetae_078.txt.gz
Theta_e
310 310 311 311 311 311 313 315 318 316 318 318 319 318 317 315 309 306 304 304 306 308 312 316 320 322 323 324 324 324 323 322 322 322 323 322 322 323 322 322 322 321 320 319
308 308 306 306 304 306 308 311 316 316 318 317 319 319 317 314 308 304 302 301 300 302 306 309 313 316 318 320 322 323 323 321 321 321 321 322 322 321 321 320 321 321 322 322
307 305 305 304 308 305 307 309 313 315 316 317 319 320 316 310 307 303 301 300 300 300 302 303 308 312 315 316 317 321 320 320 319 320 321 321 322 322 320 319 319 319 320 321
306 305 303 302 303 306 313 315 314 316 318 317 311 307 308 306 306 301 302 301 301 301 302 300 301 303 306 313 313 313 315 316 316 317 317 318 319 320 320 320 320 320 319 320
304 306 304 304 310 311 311 311 315 317 314 309 305 304 301 300 300 301 301 299 300 303 301 301 302 304 306 306 306 306 307 307 308 309 310 312 314 314 314 315 315 317 317 318
305 305 303 303 305 306 308 312 315 317 311 309 309 310 302 298 299 303 301 301 303 304 303 304 304 304 305 304 305 305 306 306 306 306 306 307 306 307 308 309 311 311 311 311
305 304 304 304 308 310 310 311 311 314 310 310 310 306 298 297 298 298 299 298 298 299 300 300 300 301 302 301 302 301 302 303 304 303 302 302 303 304 305 305 306 305 305 304
305 306 305 307 309 311 310 307 304 304 307 300 299 298 296 294 293 294 295 296 296 296 295 295 297 299 300 300 298 299 300 300 301 300 299 299 300 301 302 301 301 300 299 299
304 304 305 302 303 304 306 305 302 301 298 297 295 295 295 292 292 292 292 293 294 294 294 294 295 296 296 295 296 297 297 298 299 299 298 298 298 298 299 298 297 296 295 294
307 307 305 303 300 298 300 300 300 300 301 300 296 292 291 291 290 290 290 290 291 292 292 292 292 293 293 293 294 294 295 295 294 295 295 295 295 294 293 293 293 292 292 291
304 305 302 299 298 296 297 297 295 294 294 294 293 290 290 289 290 289 288 288 289 290 290 291 291 292 292 293 293 294 294 293 293 294 294 294 294 292 292 290 290 290 289 289
303 297 300 297 295 295 295 294 295 294 291 290 291 289 289 288 287 287 287 287 288 288 289 289 290 290 290 291 291 292 292 291 290 290 290 291 290 290 290 289 288 288 287 287
297 294 294 293 292 292 293 292 291 293 292 290 288 288 288 286 286 286 287 287 287 287 287 288 288 289 288 289 289 290 290 289 289 289 288 288 288 288 288 286 286 287 286 286
295 295 293 292 289 290 292 291 291 290 289 287 286 286 286 286 286 285 285 285 285 286 286 287 287 288 287 287 287 287 287 287 287 286 286 285 285 285 285 285 285 285 284 284
293 295 293 291 290 289 290 290 290 287 286 285 285 284 285 285 285 284 284 284 284 285 285 285 286 286 285 284 285 285 285 285 284 284 284 284 283 283 283 282 282 281 280 279
293 292 291 290 289 288 288 287 287 285 284 284 284 284 284 284 283 283 283 283 284 284 283 282 281 280 280 280 280 281 282 282 281 281 281 281 280 280 279 278 277 277 276 276
293 292 289 288 286 286 286 285 284 283 283 283 283 283 283 283 283 283 282 281 281 280 279 278 278 277 278 278 278 278 278 278 278 278 278 278 277 277 276 276 275 275 275 274
290 290 290 288 286 285 284 284 284 284 283 283 283 282 282 282 282 281 280 278 277 277 277 277 276 276 276 277 276 276 276 276 276 276 276 276 275 275 274 274 274 273 272 272
287 287 287 287 286 285 284 283 283 282 282 282 281 281 281 280 277 276 276 275 275 275 275 275 275 275 275 275 275 275 275 275 275 275 274 274 274 273 273 273 272 271 271 271
285 285 285 285 284 284 283 282 282 282 281 281 282 280 278 277 276 275 275 275 275 275 274 274 274 274 274 274 274 274 274 274 274 273 273 273 272 272 271 271 271 270 270 270
284 283 283 283 282 282 282 282 282 282 281 279 277 277 277 276 276 275 274 273 273 273 273 273 273 273 273 273 273 273 273 272 272 272 271 271 271 271 270 270 270 269 269 269
281 282 282 282 283 282 282 281 280 279 278 278 277 276 276 275 275 274 273 273 272 272 272 272 272 272 272 272 272 272 271 271 271 271 271 270 270 269 269 269 269 269 269 268
282 282 282 282 281 281 280 279 278 278 277 276 276 275 275 275 274 274 274 273 272 272 272 271 271 271 271 271 271 271 271 270 270 270 270 269 269 269 269 268 268 268 268 268
282 282 282 281 280 279 278 277 277 277 277 276 276 275 275 274 273 273 273 272 271 271 271 270 270 270 271 270 270 270 269 269 269 269 269 269 268 268 268 267 267 267 267 267
281 280 279 279 278 278 278 277 277 277 276 276 275 275 274 273 272 271 271 271 270 270 269 269 269 269 268 268 268 268 268 267 267 267 267 267 267 267 266 266 266 266 266 266
280 280 279 279 278 278 277 277 277 276 276 275 274 274 273 272 272 271 270 270 269 269 269 268 268 268 268 267 267 267 267 267 267 266 266 266 266 266 266 265 265 265 265 265
280 279 278 278 277 277 276 276 276 275 275 274 274 273 272 271 271 270 270 269 269 269 268 268 268 268 267 267 267 267 267 266 266 266 266 266 266 266 266 265 265 265 265 265

GFSNGP_850_thetae_081.txt.gz
Theta_e
310 310 311 311 309 308 309 311 312 311 313 314 316 319 317 310 307 304 302 301 301 304 309 314 318 319 320 321 322 322 323 323 322 323 323 322 322 321 321 321 321 321 320 319
308 308 306 305 304 304 306 308 309 311 313 314 315 318 316 309 306 303 300 298 298 300 302 308 311 313 316 319 320 322 322 321 320 321 322 321 321 321 320 320 321 320 320 321
306 306 305 304 305 305 307 312 313 314 314 314 318 319 315 309 304 303 299 297 297 297 298 301 306 308 312 315 315 319 319 318 318 319 320 320 319 319 319 320 320 320 320 320
307 305 302 304 305 306 307 311 309 312 316 316 311 307 306 304 302 299 298 296 297 298 298 301 303 304 308 312 313 316 314 316 317 316 315 316 316 317 317 317 318 318 318 318
306 306 304 306 306 306 306 305 315 316 314 309 305 303 299 298 298 300 300 299 297 298 299 300 301 303 305 303 308 310 310 311 308 310 309 308 311 311 312 312 312 314 313 313
306 305 302 303 307 309 309 309 309 310 313 308 307 310 301 296 296 297 298 298 299 301 300 298 298 302 303 303 303 304 304 303 302 304 303 303 304 305 306 307 308 307 308 307
307 306 306 307 308 309 305 310 307 304 309 312 308 301 295 294 293 294 295 295 296 299 301 300 299 300 302 300 301 299 298 300 300 300 300 301 302 303 304 304 303 303 303 302
306 306 306 305 308 309 307 307 302 300 299 296 294 293 293 292 293 295 294 293 294 295 296 295 296 299 300 300 298 299 300 300 301 299 299 299 300 301 301 301 301 299 299 298
306 306 304 302 302 300 303 303 301 298 295 295 295 293 292 291 292 291 292 292 292 292 293 293 293 293 295 294 295 296 297 297 297 297 296 296 297 297 298 297 296 295 294 294
307 307 304 302 299 297 297 297 298 297 295 294 291 291 290 290 291 291 291 290 290 291 290 290 291 292 292 292 293 294 294 294 294 295 294 295 295 294 294 293 293 292 292 291
303 303 301 297 296 295 294 296 297 296 293 291 292 290 290 289 290 289 289 289 289 289 289 289 290 290 291 291 292 293 293 292 292 293 293 293 293 292 291 290 290 291 290 290
302 297 297 294 293 293 292 291 291 294 294 291 292 290 290 289 288 288 288 288 289 288 288 288 289 290 290 290 291 291 291 290 290 289 289 289 288 288 288 287 288 288 288 288
296 293 293 291 291 291 290 289 290 290 288 288 288 289 288 286 286 287 287 287 287 287 287 287 288 288 288 288 288 289 289 288 288 288 287 287 287 287 286 286 286 286 286 286
294 294 292 291 288 289 290 288 288 287 287 287 287 287 287 286 286 286 286 286 286 286 287 286 287 287 286 286 287 287 287 287 287 286 286 286 286 285 285 284 284 283 283 282
293 294 292 289 289 288 287 287 287 285 284 285 285 286 286 285 286 285 284 284 285 285 285 285 284 284 283 283 283 283 284 284 284 284 284 283 283 282 282 281 280 279 278 278
291 290 289 288 287 287 287 286 286 284 285 284 284 284 284 284 284 284 283 283 284 283 281 280 280 280 279 280 280 280 280 281 281 281 280 280 279 278 278 277 277 276 276 276
291 289 288 287 285 284 285 284 284 283 283 283 283 283 283 283 283 282 282 281 280 279 278 278 278 278 278 278 278 278 278 278 278 278 278 277 277 276 276 275 275 274 274 274
290 289 289 287 285 285 283 283 283 283 283 283 283 283 283 283 283 282 280 277 277 277 276 276 276 276 277 277 277 277 276 276 276 276 276 275 275 275 274 274 273 273 272 272
287 287 287 286 285 285 284 283 282 282 282 282 282 282 282 281 279 277 276 276 276 276 276 276 276 276 276 276 276 276 275 275 275 275 274 274 274 273 273 272 272 272 271 271
285 285 285 284 283 284 283 283 282 282 281 281 281 279 277 277 276 275 275 275 275 275 275 275 274 274 274 274 274 274 274 274 274 273 273 272 272 272 271 271 271 270 270 270
283 283 283 283 282 282 282 281 281 281 279 277 277 277 277 276 276 275 274 274 274 274 273 273 273 273 273 273 273 273 273 272 272 272 271 271 271 271 270 270 269 269 269 269
282 282 282 282 282 281 280 279 278 278 277 276 276 276 275 275 275 274 273 273 272 272 271 271 271 271 272 272 272 271 271 271 271 271 270 270 270 269 269 269 269 268 268 268
282 282 281 281 280 279 278 278 277 276 276 276 275 275 274 273 273 273 272 272 271 271 271 270 270 270 271 270 270 270 270 270 269 269 269 269 269 269 268 268 268 267 267 267
281 280 280 279 278 277 277 277 276 276 276 276 275 275 274 274 273 273 272 271 270 270 270 270 269 269 269 269 269 269 269 269 268 268 268 268 268 268 267 267 267 267 267 266
280 279 279 279 279 278 278 277 277 277 276 276 275 275 274 274 273 272 271 271 270 270 270 269 269 268 268 268 268 268 268 268 267 267 267 267 267 267 267 266 266 266 266 266
280 280 280 279 279 278 278 277 277 276 276 275 274 274 273 273 272 271 270 270 270 269 269 269 269 268 268 268 268 268 267 267 267 267 267 267 267 267 266 266 266 266 265 265
280 279 278 278 278 277 276 276 276 275 275 274 274 273 272 272 271 270 270 270 269 269 269 268 268 268 268 268 268 267 267 267 267 267 266 266 266 266 266 266 265 265 265 265

GFSNGP_850_thetae_084.txt.gz
Theta_e
311 310 310 311 311 311 312 313 313 312 310 312 315 317 317 312 308 304 301 301 299 300 305 310 315 319 320 320 320 321 320 320 319 319 319 319 321 320 319 319 319 319 319 318
310 309 307 307 306 306 306 307 309 312 314 315 316 316 315 311 307 302 299 298 297 296 300 305 309 313 316 317 320 320 320 320 320 320 320 320 320 320 320 320 320 320 320 319
309 307 306 306 307 308 310 312 313 314 315 316 318 317 312 308 304 301 299 298 296 294 295 298 303 305 309 311 313 317 319 318 318 319 319 320 320 320 320 320 320 320 320 320
307 306 305 306 309 307 307 311 313 314 316 313 310 304 302 302 300 298 298 300 298 295 295 296 299 300 303 307 309 310 312 315 315 315 315 315 317 317 317 317 317 317 317 317
306 306 305 306 308 309 308 310 311 311 311 311 304 301 296 296 296 295 298 296 300 299 295 296 298 299 303 302 303 305 306 307 309 311 309 309 314 314 313 312 312 312 312 312
307 305 303 309 308 309 310 311 310 309 309 309 307 312 298 294 293 292 293 295 296 297 299 294 295 298 302 299 302 304 303 302 299 304 308 308 306 307 308 307 307 306 306 306
307 306 307 308 308 308 310 311 308 304 302 305 308 299 292 293 291 291 291 292 292 292 293 294 297 301 302 301 300 300 301 304 300 301 302 301 301 301 302 302 302 301 301 301
307 307 307 306 308 309 307 306 304 299 297 294 292 292 291 291 290 290 290 290 291 293 294 292 294 298 299 299 296 296 297 297 298 298 297 298 299 298 298 298 298 296 295 295
308 310 305 302 302 301 301 301 300 298 294 292 291 290 290 291 290 289 292 292 291 290 290 292 293 294 296 294 294 294 294 293 295 296 296 293 294 294 293 293 294 292 292 292
308 305 302 300 299 297 295 295 294 294 293 292 290 289 288 288 288 290 290 292 292 292 291 291 291 292 291 291 292 293 294 294 294 294 293 293 293 292 292 292 291 290 290 290
306 302 299 297 296 296 294 292 293 293 293 292 290 288 287 288 286 287 288 288 287 288 288 289 291 291 291 289 290 291 291 291 290 291 291 292 292 291 291 290 290 289 289 289
304 298 299 295 293 293 291 290 290 290 289 289 289 286 286 286 287 288 286 286 286 284 286 287 289 289 289 289 290 290 290 289 288 288 287 287 287 288 287 287 288 288 288 288
297 293 293 291 291 290 290 289 289 289 288 287 285 284 284 285 285 286 287 287 287 287 287 287 288 288 287 287 288 288 288 287 287 287 286 285 284 283 285 284 284 285 285 285
293 293 293 292 290 288 288 288 287 286 285 284 284 284 284 283 283 284 286 286 286 286 286 286 286 287 286 286 286 286 286 286 285 284 284 283 283 282 281 280 279 280 279 279
293 293 291 289 289 288 287 287 287 286 284 283 283 282 283 283 284 284 284 284 285 285 285 284 283 283 282 282 282 283 283 283 283 282 282 282 281 280 279 278 278 277 276 276
291 291 290 289 288 287 287 286 285 283 282 283 284 284 285 285 285 284 284 284 284 283 281 280 280 279 279 280 280 280 280 280 280 279 279 279 278 278 277 277 276 276 276 276
292 291 289 289 288 287 286 285 284 283 282 281 282 283 283 283 284 283 283 281 280 279 279 279 279 279 279 279 279 278 278 278 278 278 277 277 277 276 276 276 275 275 275 275
290 290 289 288 286 285 284 283 282 281 280 281 283 283 283 283 283 281 279 278 277 277 277 277 277 277 277 277 277 277 277 277 277 276 276 276 275 275 275 274 274 273 273 274
286 286 285 284 284 283 282 281 282 283 283 283 283 283 282 281 279 277 277 276 276 276 276 276 276 276 276 276 276 276 276 275 275 275 275 274 274 273 273 273 272 272 271 271
285 285 285 284 284 284 283 283 283 282 282 282 282 280 278 277 276 276 276 275 275 275 275 275 274 274 274 275 274 274 274 274 273 273 273 273 272 272 272 272 271 270 269 269
284 284 284 283 283 283 282 282 282 282 280 278 278 277 277 277 276 276 275 275 275 274 274 274 274 273 274 274 273 273 273 273 272 272 272 271 271 271 270 270 269 269 268 268
282 282 282 282 282 282 281 281 279 279 278 277 277 277 276 276 275 275 274 274 274 273 273 272 272 273 273 273 273 272 272 272 271 271 270 270 270 269 269 268 268 268 267 267
282 282 282 281 281 280 279 278 278 277 277 276 276 276 275 274 274 274 273 273 273 273 272 272 272 272 272 272 271 271 270 270 270 270 270 270 269 268 268 267 267 266 266 266
281 280 280 279 278 277 277 277 276 276 276 276 275 275 274 273 272 272 272 272 271 271 270 270 270 270 270 270 269 269 268 268 268 268 267 269 268 268 267 267 267 266 266 266
279 278 278 278 278 278 277 276 276 275 275 274 275 274 274 273 273 272 271 271 270 270 269 270 269 269 269 268 268 268 267 267 267 267 267 266 266 266 266 266 265 265 265 265
279 280 279 279 279 278 278 277 277 276 276 275 274 273 273 273 272 271 271 270 270 269 269 269 269 268 268 267 267 267 267 267 266 266 266 266 265 265 265 265 265 264 264 264
279 279 278 278 278 277 277 276 276 276 275 274 274 273 272 272 271 271 271 270 270 269 269 269 268 268 268 267 267 267 267 266 266 266 266 265 265 265 265 265 265 265 265 265